[{"header": {"dx": 0.06612293990616946, "dy": 0.0552356325346848, "nx": 98, "ny": 59, "la1": 35.046912555036876, "la2": 31.78801023549047, "lo1": -121.43107172385933, "lo2": -114.95102361305473, "refTime": "2026040714", "parameterCategory": 1, "parameterNumber": 2}, "data": [6.29, 6.56, 6.12, 5.89, 5.89, 5.48, 5.26, 4.8, 4.6, 4.5, 4.37, 4.29, 2.41, 0.85, 0.57, 0.0, -2.15, -4.0, -4.57, -5.73, -6.26, -6.17, -4.09, -4.09, -3.48, -2.51, -3.16, -3.93, -4.0, -4.46, -6.36, -5.2, -5.36, 4.47, 4.47, 4.47, 4.47, 4.92, -0.0, -1.8, -0.0, 4.0, 6.26, 7.47, 8.93, 10.9, 13.26, 14.2, 14.15, 11.2, 4.8, -0.0, 3.72, 4.56, 5.31, 4.96, 6.64, 7.64, 8.15, 8.63, 8.91, -2.83, -6.7, -7.15, 3.0, 5.06, 6.52, 7.81, 8.91, 10.84, 11.76, 11.57, 10.73, 10.28, 9.83, 9.77, 10.68, 11.62, 12.96, -12.52, -9.2, -6.4, -5.64, -4.47, -3.58, -3.13, 0.0, 0.0, 3.39, 4.4, 6.7, 6.95, 7.36, 7.95, 7.51, 6.94, 2.1, 0.0, 6.29, 6.29, 5.86, 5.89, 5.89, 5.92, 5.75, 5.32, 4.87, 4.4, 4.07, 3.22, 2.41, 1.9, 2.53, 1.2, 0.0, -1.9, -3.74, -4.52, -6.88, -6.71, -5.29, -4.22, -3.16, -2.79, -2.84, -2.86, -3.07, -3.58, -3.9, -3.47, -2.97, -2.21, -0.0, 2.53, 4.47, 4.92, 4.92, 4.47, 4.47, 5.94, 7.67, 8.31, 10.12, 12.01, 13.7, 13.7, 12.45, 4.65, -0.0, 2.12, 4.29, 4.75, 4.22, 4.71, 5.72, 7.13, 8.34, 8.99, 8.8, 8.94, -8.05, -0.0, 3.97, 5.37, 7.6, 8.22, 8.91, 9.92, 11.33, 11.44, 11.18, 10.18, 8.82, 8.94, 10.25, 11.62, 12.96, -12.52, -9.2, -6.4, -5.64, -4.47, -3.58, -3.13, 0.0, 0.0, 3.39, 4.4, 6.7, 6.95, 7.36, 7.95, 7.51, 6.94, 2.1, 0.0, 6.29, 6.29, 5.86, 5.64, 5.89, 5.89, 5.48, 5.05, 4.6, 4.66, 4.0, 3.85, 2.07, 1.88, 1.9, 1.58, 2.21, 1.4, -2.15, -3.45, -4.93, -6.99, -7.74, -6.26, -3.95, -3.49, -2.51, -2.53, -2.91, -3.58, -3.53, -3.58, -3.09, -2.23, -0.0, 2.53, 4.15, 5.36, 6.14, 5.6, 5.37, 7.27, 9.24, 10.59, 11.4, 11.93, 12.88, 12.0, 5.36, -1.98, -0.0, 3.4, 4.56, 4.22, 3.55, 4.46, 5.44, 7.13, 8.34, 8.99, 8.99, 8.17, 6.32, 4.83, 5.03, 6.01, 7.64, 8.72, 8.93, 9.81, 11.14, 12.14, 12.07, 10.18, 6.9, 6.79, 9.36, 12.96, 12.39, -13.41, -10.28, -8.05, -7.6, -5.94, -3.9, -3.04, -2.8, 0.0, 3.22, 6.44, 9.05, 8.64, 7.26, 7.14, 7.44, 6.44, 2.8, 1.08, 5.86, 5.86, 5.86, 5.86, 5.64, 5.89, 5.67, 5.26, 4.84, 4.4, 4.45, 4.0, 2.6, 2.07, 1.98, 2.53, 2.86, 3.58, 1.98, -2.21, -4.0, -4.57, -7.4, -8.4, -7.12, -3.95, -3.07, -2.15, -2.53, -3.13, -4.0, -4.93, -4.73, -3.95, 3.58, 4.47, 5.81, 7.45, 8.0, 7.74, 8.72, 10.19, 10.73, 9.92, 9.42, 9.92, 8.83, 5.1, -1.63, -0.0, 2.82, 4.29, 3.45, 3.97, 3.77, 4.94, 6.32, 7.13, 8.99, 9.55, 8.91, 7.53, 6.32, 4.87, 5.2, 6.11, 7.47, 7.27, 8.22, 9.62, 11.8, 13.77, 14.47, 12.27, 4.6, 3.22, 7.2, 12.2, 10.75, -13.15, -8.24, -5.2, -6.79, -5.4, -3.95, -3.58, -3.58, 1.8, 4.89, 9.05, 10.41, 8.69, 7.36, 6.7, 6.01, 4.47, 4.24, 6.0, 5.86, 5.86, 5.86, 5.86, 5.86, 5.64, 5.89, 5.48, 5.05, 4.84, 4.2, 4.24, 2.6, 1.83, 1.66, 2.95, 3.16, 3.16, 2.15, -1.6, -4.57, -6.64, -4.47, -7.52, -7.45, -7.08, -3.58, -3.13, -3.13, -3.58, -2.21, -4.12, -6.64, -4.96, 0.0, 3.11, 4.4, 7.9, 9.06, 9.39, 9.8, 9.77, 8.12, 7.69, 8.43, 9.03, 7.95, 6.8, 4.29, 4.29, 4.74, 4.19, 4.19, 3.4, 4.68, 6.32, 6.32, 7.13, 8.55, 9.36, 8.56, 6.16, 4.58, 4.68, 6.18, 7.4, 6.95, 6.64, 7.13, 8.53, 11.8, 13.99, 14.39, 14.23, 12.14, 2.21, 3.79, 8.21, 10.4, -11.2, -4.22, -3.22, -4.98, -6.88, -4.15, -2.53, 0.98, 5.69, 8.22, 10.38, 10.25, 8.58, 6.44, -4.11, -2.84, 3.13, 5.7, 8.3, 5.86, 5.86, 5.86, 5.86, 5.86, 5.86, 5.64, 5.23, 5.26, 4.84, 4.4, 3.75, 2.6, 1.83, 2.2, 2.76, 2.76, 2.76, 3.47, 0.0, -5.82, -8.24, -7.81, -7.31, -5.94, -6.4, -4.98, -2.84, -1.8, 0.0, 2.84, 0.0, -2.12, -3.85, -0.71, 0.7, 2.44, 6.65, 9.49, 8.74, 5.38, 4.18, 3.48, 7.85, 11.15, 12.41, 12.03, 10.73, 7.21, 5.37, 4.11, 3.91, 3.97, 3.97, 4.87, 6.18, 6.91, 6.91, 8.21, 10.18, 9.06, 5.21, 4.58, 5.24, 6.32, 7.4, 6.95, 6.32, 5.53, 8.55, 11.55, 12.93, 12.74, 13.51, 14.84, 12.39, 3.32, 2.3, 3.72, -6.64, -3.49, -3.48, -3.72, -5.84, -2.98, -0.69, 1.49, 5.64, 9.5, 9.48, 7.9, 9.5, 2.97, -4.02, -1.9, 2.86, 6.6, 8.54, 5.86, 5.86, 5.86, 5.86, 5.86, 5.86, 5.64, 5.89, 5.23, 4.8, 4.35, 3.7, 2.8, 2.2, 2.6, 2.4, 2.99, 3.72, 4.46, 3.09, -0.88, -4.09, -7.41, -7.59, -5.2, -4.21, -4.4, -3.3, -2.21, -1.84, 0.0, 3.58, 3.2, 0.0, 0.0, 0.0, 0.75, 4.28, 7.68, 5.41, 3.25, 1.02, 3.21, 7.19, 11.52, 11.44, 11.96, 10.66, 7.94, 6.64, 5.36, 3.91, 3.97, 4.58, 5.06, 5.58, 6.6, 6.6, 8.06, 9.54, 8.14, 5.6, 4.89, 4.74, 3.68, 5.72, 8.0, 7.44, 6.8, 8.73, 10.68, 11.57, 11.88, 14.26, 15.15, 15.65, 13.59, 7.6, 5.81, 8.8, -2.4, -2.26, -2.18, -2.31, -0.78, 0.67, 1.71, 3.25, 5.63, 6.87, 6.7, 3.82, -5.26, -4.02, 0.0, 2.79, 6.79, 7.64, 5.86, 5.86, 5.86, 5.86, 5.86, 5.86, 5.86, 5.64, 5.23, 4.76, 4.3, 3.11, 1.84, 3.76, 5.36, 4.43, 4.43, 4.74, 5.06, 5.09, 3.58, 3.07, 2.4, -1.84, -5.14, -3.25, -3.08, -4.15, -5.21, -5.15, -3.49, -1.41, 1.73, 3.32, 2.21, 0.7, 0.71, 2.19, 5.64, 5.72, 2.99, 2.28, 3.14, 4.24, 4.4, 3.49, 4.6, 7.5, 8.41, 7.47, 4.6, 3.91, 4.58, 5.06, 5.84, 6.6, 7.37, 7.95, 8.73, 8.77, 8.29, 5.94, 3.6, 1.3, -0.0, 3.68, 8.15, 8.6, 6.71, 7.15, 8.94, 10.28, 11.02, 11.61, 12.82, 12.47, 12.42, 10.8, 12.14, 14.3, 9.77, -1.09, -0.78, 0.0, 0.71, 2.1, 2.62, 1.43, 2.13, 3.82, 0.0, -4.6, -5.31, -3.22, 0.0, 3.72, 6.06, 6.01, 5.86, 5.86, 5.86, 5.86, 5.86, 5.86, 5.86, 5.86, 5.2, 5.2, 4.95, 3.87, 2.49, 2.95, 4.0, 4.46, 5.44, 5.24, 4.81, 4.22, 4.02, 5.4, 6.45, 4.38, 0.0, -1.58, -2.82, -5.72, -7.65, -5.46, -2.23, 0.0, 0.0, 2.28, 1.71, 1.5, 2.1, 2.1, 3.49, 4.74, 4.02, 2.98, 2.53, 0.8, -2.24, -3.2, 0.0, 4.02, 5.7, 5.37, 5.1, 4.47, 4.87, 5.84, 6.91, 7.58, 8.58, 9.4, 9.85, 9.21, 8.77, 6.71, -0.0, -0.96, -0.0, 4.29, 8.63, 8.67, 5.81, 5.7, 7.1, 8.84, 11.18, 11.52, 10.68, 9.76, 8.94, 10.22, 12.96, 15.16, 16.37, 0.0, 0.0, 0.0, 1.54, 3.02, 3.08, 0.0, -4.8, -8.18, -5.51, -4.88, -4.11, -2.15, 0.88, 4.01, 6.06, 5.69, 5.86, 5.86, 5.86, 5.86, 5.86, 5.86, 5.62, 5.62, 5.86, 5.4, 5.6, 5.55, 5.14, 3.04, 1.84, 2.93, 4.65, 4.65, 3.96, 4.24, 4.8, 4.6, 7.51, 7.2, 6.7, 3.4, -2.4, -6.95, -7.65, -3.34, 0.0, 1.17, 0.0, 0.0, 0.0, 0.0, 3.52, 3.4, 4.47, -0.0, 1.58, 2.17, 2.24, -0.0, -0.85, -1.24, -1.58, -2.21, -0.0, -0.0, 2.66, 5.37, 6.32, 7.2, 7.58, 8.6, 9.6, 10.38, 10.78, 10.12, 9.79, 7.15, -0.0, -1.23, -0.0, 4.29, 8.63, 8.91, 5.29, 3.51, 6.07, 9.89, 11.75, 11.28, 10.6, 9.21, 7.95, 8.56, 10.89, 13.83, 16.09, 15.69, 0.0, 1.25, 2.12, 4.47, 6.28, 7.6, 5.69, -5.51, -5.36, -4.24, -2.84, -1.33, 0.81, 3.43, 5.69, 4.58, 5.86, 5.86, 5.86, 5.86, 5.86, 5.86, 5.62, 5.83, 5.83, 5.83, 6.04, 6.45, 6.72, 5.6, 3.53, 3.34, 4.13, 3.69, 3.19, 2.79, 2.16, 1.45, 5.23, 8.58, 6.7, 0.0, 0.0, -3.79, -3.8, -1.76, 0.0, 0.0, -2.24, -3.58, 0.0, 0.0, 1.84, 4.92, -0.0, 2.0, 2.54, 2.24, 1.79, 1.79, -1.79, -1.58, -0.85, -0.0, -1.27, -0.88, -0.0, 4.8, 5.51, 6.4, 7.58, 8.55, 10.4, 11.64, 12.02, 11.18, 8.94, 8.05, 1.58, -1.25, -0.0, 5.31, 8.0, 8.4, 7.31, 6.26, 7.63, 9.68, 10.6, 9.83, 9.54, 10.02, 8.55, 7.07, 8.3, 11.36, 13.57, 14.84, 13.03, 7.78, 5.2, 5.29, 5.31, 6.26, 6.26, 4.92, 0.0, -2.84, -1.66, 0.0, 1.41, 3.35, 5.06, 2.53, 5.86, 5.86, 5.86, 5.86, 5.86, 5.62, 5.83, 5.83, 5.83, 6.04, 6.25, 6.68, 6.94, 7.44, 7.54, 5.92, 5.23, 4.48, 3.53, 2.53, 0.74, -1.11, -6.95, -9.2, -5.6, -2.24, -2.24, -1.86, -1.26, -3.13, -2.53, -1.79, -2.21, -1.9, 2.68, 0.0, -1.13, -2.68, 2.68, 3.13, 2.24, 1.79, 1.79, 2.68, -3.13, -2.68, -2.24, -1.79, -2.68, 2.68, 0.0, 2.21, 3.58, 4.41, 5.6, 7.81, 10.04, 12.02, 12.52, 10.08, 6.21, 7.63, -0.0, -1.49, 1.67, 5.59, 7.59, 9.17, 9.6, 10.28, 10.24, 10.58, 9.11, 7.21, 7.21, 9.33, 8.95, 7.06, 8.24, 9.84, 10.37, 10.8, 11.72, 10.43, 10.52, 7.06, 7.1, 5.78, 5.32, 4.92, 4.82, 2.73, 0.0, 1.08, 2.3, 4.74, 3.48, 0.0, 5.86, 5.86, 5.86, 5.86, 5.86, 5.83, 5.83, 5.83, 6.5, 6.25, 6.46, 6.46, 7.13, 8.08, 8.53, 8.24, 7.59, 6.64, 5.29, 4.48, 3.29, 0.0, -8.05, -5.36, -4.92, -4.47, -4.43, -5.02, -5.72, -6.42, -4.02, -3.58, -3.58, -3.13, -2.68, -3.13, -3.58, -3.58, -3.58, -4.02, -3.13, -2.68, 2.68, 3.13, 0.0, 0.0, -0.76, -1.33, -0.7, 0.0, 0.0, 0.0, 0.7, 2.26, 4.0, 5.63, 7.2, 10.14, 11.4, 3.82, 4.92, 2.12, -0.0, -2.4, -0.0, 3.72, 3.45, 7.27, 10.27, 11.28, 10.65, 9.77, 8.94, 8.05, 8.06, 9.49, 9.6, 8.03, 7.94, 7.94, 6.35, 6.06, 9.16, 10.59, 11.62, 12.35, 10.41, 6.7, 4.77, 4.88, 5.32, 3.82, 3.9, 3.72, 4.74, 5.21, 0.0, -2.53, 5.86, 5.86, 5.86, 5.86, 5.62, 5.83, 6.27, 6.27, 6.5, 6.25, 6.46, 6.9, 7.13, 8.2, 8.86, 9.48, 8.82, 8.21, 8.24, 7.55, 8.93, 9.66, 10.04, -8.22, -10.96, -10.28, -8.94, -6.07, -5.51, -6.14, -6.26, -3.58, -3.13, -2.68, -2.12, -2.68, -3.13, -3.13, -3.58, -3.9, -3.47, -3.58, -2.68, 2.24, 3.13, 0.0, 0.0, 0.0, 0.0, 0.0, 0.0, 0.0, 2.4, 1.38, 1.55, 1.05, 1.54, 4.83, 9.2, 1.34, -3.82, -4.47, 5.81, 0.0, 0.0, 0.0, 4.02, 5.81, 9.83, 7.94, 9.2, 9.6, 10.32, 9.83, 9.42, 10.32, 9.6, 6.18, 5.46, 4.84, 3.48, 4.83, 8.6, 10.38, 8.85, 10.91, 11.85, 9.45, 5.51, 4.92, 5.81, 4.87, 3.82, 4.8, 4.65, 4.0, -3.6, -2.53, 5.86, 5.86, 5.86, 5.86, 5.83, 6.27, 6.27, 6.5, 6.5, 6.46, 6.9, 7.13, 7.55, 8.2, 9.14, 9.5, 9.8, 9.48, 9.5, 9.2, 9.84, 11.12, 11.99, 12.03, 7.44, -5.8, -11.62, -8.94, -5.59, -4.77, -4.89, -4.92, -2.68, -1.6, -1.6, -2.0, -1.79, -2.24, -3.39, -3.6, -3.6, -3.58, 3.13, 2.24, -0.0, -0.0, 2.68, 0.71, 0.76, 0.0, 0.0, 1.04, 1.25, 0.0, 0.0, 0.0, 1.14, 3.35, 5.03, 1.79, -2.68, -2.68, 0.0, 0.0, -0.88, -0.88, 0.0, 0.0, -2.68, -0.0, 5.06, 9.75, 11.62, 10.66, 9.55, 9.03, 4.92, 3.58, 4.24, 5.09, 5.21, 4.74, 7.15, 9.2, 8.37, 7.51, 10.18, 10.38, 8.38, 7.15, 6.65, 5.67, 4.93, 4.15, 3.9, 0.0, -1.98, -1.98, 5.62, 5.86, 5.86, 5.62, 6.27, 6.27, 6.27, 6.5, 6.5, 6.9, 6.9, 7.55, 7.55, 8.2, 9.14, 9.8, 10.11, 10.44, 10.13, 10.13, 10.47, 11.05, 12.08, 12.79, 12.79, 12.74, 11.2, 11.62, 9.83, -6.8, -5.7, -3.53, -3.58, -1.79, -2.24, -1.79, -2.24, -2.21, -2.84, -4.46, -2.98, -1.58, 2.68, -0.0, -2.53, -1.8, -0.0, 3.13, 1.79, 0.63, 0.85, 0.99, 1.79, -0.0, -0.8, -0.0, 1.6, 2.98, 1.4, 1.34, 0.0, 1.34, 0.45, 0.0, 0.0, -0.95, -2.51, -3.51, -3.2, -0.0, 4.92, 9.7, 12.04, 10.88, 9.29, 3.82, -1.41, -4.11, -4.8, -4.11, 7.15, 7.21, 6.8, 7.31, 7.31, 5.2, 6.17, 8.8, 8.49, 7.45, 8.24, 4.8, 3.45, 4.66, 4.57, 1.13, 0.0, 0.0, 5.62, 5.62, 5.62, 5.83, 6.27, 6.27, 6.27, 6.5, 6.5, 6.9, 6.9, 7.55, 7.55, 8.2, 8.86, 9.8, 9.8, 10.43, 10.44, 10.76, 10.73, 11.26, 12.25, 12.7, 13.82, 14.42, 14.58, 14.07, 13.31, 12.07, 10.28, 8.05, -5.36, -2.24, -0.63, -0.0, -1.4, -2.53, -2.53, -2.84, -3.13, -2.24, -3.2, -2.4, -2.53, -2.53, -2.53, -3.13, -0.0, -0.0, -0.0, -0.0, -2.21, 3.13, 2.68, 3.13, 4.92, 3.58, 3.58, 3.58, 3.58, 3.13, -0.0, -0.0, 2.24, 0.65, -2.23, -4.38, -2.6, 0.0, 7.07, 8.73, 11.6, 11.03, 4.92, -3.2, -5.2, -6.0, -5.6, -5.21, -0.0, 7.6, 7.89, 7.63, 8.17, 5.26, 4.02, 4.02, 4.4, 7.53, 8.3, 4.8, 3.49, 4.46, 5.21, 2.41, 0.0, 0.0, 5.62, 5.62, 5.83, 5.83, 6.27, 6.27, 6.27, 6.5, 6.92, 7.16, 6.9, 7.55, 7.95, 8.2, 8.86, 9.5, 10.75, 10.75, 10.73, 10.76, 11.26, 11.94, 12.25, 12.87, 13.76, 15.18, 15.87, 15.38, 14.86, 13.8, 12.14, 10.38, 6.32, 6.26, -1.27, -1.24, -2.8, -3.47, -3.13, -2.68, -2.68, -2.68, -2.68, -2.24, -2.68, -3.13, -3.13, -3.13, -3.13, -2.21, -2.53, -2.84, 4.02, 4.02, 4.02, 4.02, 4.47, 5.36, 5.81, 5.36, -0.0, -0.0, -0.0, -0.0, -0.0, -0.0, 1.79, 0.0, -1.93, -1.84, 0.0, 3.68, 4.8, 0.0, -2.24, -3.32, -3.51, -5.36, -6.26, -5.81, 5.36, 5.94, 6.64, 7.64, 6.28, 3.58, 3.84, 3.13, 4.98, 6.55, 8.4, 5.6, 4.09, 4.75, 4.81, 2.41, 0.87, 0.87, 5.62, 5.62, 5.83, 5.83, 6.27, 6.27, 6.27, 6.5, 6.92, 7.16, 7.16, 7.55, 7.95, 8.22, 8.22, 8.66, 9.46, 10.11, 10.09, 10.68, 12.5, 13.85, 12.72, 10.8, 11.13, 14.4, 13.15, 13.48, 12.79, 11.77, 10.79, 9.82, 8.58, 8.94, -2.12, -2.79, -3.35, -4.92, -3.51, -3.04, -2.4, -2.6, -2.68, -2.68, -2.68, -2.68, -3.13, -3.58, -2.53, -2.53, -2.84, -3.16, -0.0, -0.0, 5.36, 5.81, 5.36, 5.81, 5.81, 5.36, 4.47, -0.0, -0.0, -0.71, -1.41, -1.4, 1.34, 2.84, 4.0, 0.0, 0.0, 5.69, 10.73, 10.28, 5.36, 2.24, -2.68, -3.95, -4.65, -1.84, 3.49, 5.93, 7.33, 7.68, 7.68, 6.32, 5.3, 4.74, 7.74, 6.01, 5.37, 5.05, 5.69, 4.43, 3.72, 2.95, 1.8, 1.8, 5.62, 5.62, 5.83, 5.83, 6.27, 6.27, 6.27, 6.5, 6.92, 6.92, 7.57, 7.57, 8.22, 8.22, 8.86, 8.87, 9.17, 7.87, 7.08, 7.97, 11.39, 13.49, 12.7, 10.73, 10.97, 11.63, 12.35, 10.75, 11.3, 9.48, 8.22, 8.15, 6.42, 4.0, -5.69, -5.36, -5.51, -5.81, -5.78, -4.8, -4.34, -4.47, -4.02, -4.02, -3.58, -4.02, -3.58, -3.58, -3.2, -2.53, -2.53, -2.84, -3.16, -3.48, -0.0, 4.02, 7.15, 4.92, 3.58, 4.47, 3.58, -0.0, -1.9, -1.8, -1.4, -1.9, 2.24, 2.4, 4.41, 5.7, 7.89, 11.99, 16.41, 18.65, 15.15, 8.4, 4.83, -2.69, -3.68, 0.0, 3.0, 5.69, 8.0, 8.49, 8.49, 5.95, 2.53, 2.68, 4.6, 4.0, 3.22, 6.01, 6.73, 3.79, 2.8, 3.55, 1.66, 1.66, 5.62, 5.62, 5.62, 5.83, 6.27, 6.27, 6.27, 6.92, 6.92, 6.92, 7.57, 7.57, 8.22, 8.22, 9.14, 9.14, 9.17, 7.87, 6.8, 8.31, 11.38, 12.36, 12.02, 11.38, 11.64, 11.62, 10.57, 8.72, 7.11, 5.45, 5.36, 5.53, 4.71, 3.8, 0.0, -6.71, -5.73, -5.81, -6.26, -6.26, -5.81, -5.81, -6.26, -6.26, -5.36, -4.92, -3.58, -3.58, -2.8, -2.8, -2.53, -2.84, -3.16, -4.47, 5.36, 3.58, 6.26, 6.26, 4.92, 2.68, -0.0, -2.21, -2.53, -3.58, -2.24, -3.13, -2.68, 2.68, 2.84, 4.94, 7.14, 9.8, 14.2, 16.26, 15.49, 10.36, 6.2, 0.0, -7.27, -3.91, 0.0, 0.0, -0.0, -1.73, -3.72, -3.35, -2.8, -0.0, 4.47, 4.02, 5.05, 6.95, 6.95, 3.72, 1.88, 2.04, 0.81, 0.81, 5.62, 5.62, 5.62, 5.83, 6.27, 6.53, 6.53, 6.92, 6.92, 6.92, 7.57, 7.57, 8.22, 8.22, 8.86, 9.14, 8.87, 8.53, 9.06, 10.65, 11.66, 10.72, 10.11, 10.1, 11.36, 11.7, 10.75, 8.54, 4.2, 2.66, 3.0, 3.47, 3.0, 2.49, 0.0, -6.0, -6.26, -4.92, -5.81, -6.26, -6.26, -6.26, -6.26, -6.26, -5.81, -4.47, -4.47, -3.58, -3.13, -3.13, -3.58, -4.02, -4.02, -4.47, 4.92, 5.81, 5.81, -7.6, 6.26, 2.24, -1.58, -1.49, -1.58, -1.6, -2.68, -3.13, -3.58, -3.13, -0.0, -0.0, 1.05, 6.14, 12.17, 15.87, 5.2, 5.46, 7.84, 7.2, -9.48, -9.75, -7.47, -6.36, -6.0, -4.43, -4.74, -4.66, -4.02, 0.0, 3.78, 7.33, 8.55, 7.61, 5.37, 3.48, 0.0, 0.0, 0.0, 0.0, 5.62, 5.62, 5.86, 6.08, 6.53, 6.53, 6.53, 6.94, 7.19, 6.92, 7.57, 7.57, 8.22, 8.22, 8.86, 8.86, 8.87, 8.87, 10.1, 11.7, 12.35, 11.73, 10.11, 9.19, 10.11, 11.41, 11.54, 9.97, 7.59, 5.63, 3.6, 1.63, 2.16, 1.99, 1.05, 0.0, -5.09, -4.92, -4.92, -5.81, -6.26, -6.26, -6.26, -6.17, -5.29, -4.82, -4.66, -3.2, -2.68, -3.13, -3.58, -3.58, -4.02, -4.47, 4.92, 5.36, -3.16, -4.4, 5.36, 3.58, -0.0, -1.0, -0.8, -1.58, -3.58, -4.47, -3.58, 2.24, 2.24, -1.79, -1.2, 0.8, 13.72, 8.06, 0.0, 0.98, 4.81, 5.98, 0.0, -13.86, -10.18, -7.94, -6.07, -5.09, -5.51, -4.4, -1.08, 0.73, 4.71, 8.22, 9.21, 5.69, 2.84, 3.58, -2.84, 0.0, 0.0, 0.0, 5.86, 5.86, 5.86, 5.86, 6.53, 6.53, 6.53, 6.94, 7.19, 7.19, 7.59, 7.57, 8.22, 8.22, 8.86, 8.87, 8.87, 9.44, 10.39, 11.38, 12.33, 12.28, 11.39, 10.09, 9.48, 10.46, 10.81, 10.22, 9.69, 9.27, 6.44, 2.83, 1.84, 1.32, 1.03, 0.0, -1.84, -5.09, -5.36, -5.36, -5.81, -6.26, -6.58, -5.81, -5.51, -4.66, -5.09, -4.0, -3.2, -4.02, -4.02, -4.02, -4.02, -4.02, -4.47, -0.0, -1.58, -2.24, 2.68, 4.02, 3.13, 2.24, 1.79, 3.13, -3.16, -4.92, 4.02, 5.36, 2.24, 0.0, 0.0, 4.2, 5.75, -4.11, -2.24, 0.0, 1.47, 3.44, 4.52, 14.3, -12.27, -9.83, -8.33, -6.44, -4.56, -2.66, 0.0, 0.89, 4.2, 4.16, 4.36, 2.4, 4.02, 4.02, 0.0, 0.0, 0.0, 0.0, 5.86, 5.86, 5.86, 5.86, 6.08, 6.53, 6.53, 6.94, 7.19, 7.19, 7.59, 7.85, 8.22, 8.22, 8.87, 8.87, 9.16, 9.8, 10.44, 11.38, 11.99, 12.31, 11.93, 11.39, 11.15, 10.48, 9.8, 10.18, 10.25, 10.02, 8.85, 6.71, 4.4, 1.75, 1.4, 1.32, 0.0, -2.26, -6.0, -6.26, -6.71, -6.71, -6.94, -6.23, -5.37, -5.2, -5.51, -4.98, -4.4, -4.4, -4.34, -4.92, -4.02, -3.58, -3.58, -2.53, -0.0, -1.26, 0.0, 1.9, 3.58, 1.58, 0.0, -3.13, -3.16, -4.47, 4.02, 4.47, -3.58, 0.65, 1.47, 3.4, 4.8, 0.0, -0.0, 7.15, 1.74, 2.07, 4.96, 8.53, -13.41, -12.27, -11.18, -8.23, -4.14, -2.4, 0.0, 0.89, 1.35, 0.0, -5.81, -3.6, 5.81, 4.66, 1.8, 0.0, 0.0, 0.0, 5.86, 5.86, 5.86, 5.86, 5.86, 6.53, 6.53, 6.94, 6.94, 7.59, 7.59, 7.85, 8.23, 8.51, 8.87, 8.87, 9.16, 9.8, 10.74, 11.06, 11.06, 11.66, 11.97, 12.02, 12.14, 10.81, 9.8, 9.53, 9.48, 9.59, 9.36, 8.53, 6.98, 5.29, 3.65, 1.47, 1.67, 0.0, 0.0, -5.37, -7.6, -7.6, -7.6, -6.8, -6.64, -5.75, -6.23, -5.81, -5.6, -5.2, -4.98, -4.82, -4.0, -3.2, -3.2, -2.53, -2.21, -0.0, 0.89, 0.0, 1.4, 2.53, 2.24, 2.68, 2.68, -3.58, -4.02, -3.58, -1.79, 0.0, 1.41, 3.97, 5.15, 9.08, 12.58, 12.52, 12.07, 5.36, 3.16, 7.44, 0.0, -13.88, -13.41, -9.96, -4.43, -2.53, 0.0, 0.0, 0.0, -2.41, -2.41, 7.15, 7.6, 5.75, 4.84, 0.0, 0.0, 0.0, 5.86, 5.86, 5.86, 5.86, 5.86, 6.53, 6.53, 6.53, 6.94, 7.59, 7.59, 8.23, 8.23, 8.51, 8.87, 8.87, 9.16, 9.8, 10.44, 11.06, 11.06, 11.66, 11.66, 11.69, 11.73, 11.49, 10.48, 9.48, 9.17, 8.85, 8.53, 8.22, 8.35, 7.9, 7.59, 5.7, 5.06, 3.65, 4.2, 2.83, 4.0, 0.0, 8.49, -7.63, -6.8, -6.8, -6.8, -6.4, -6.0, -5.6, -5.4, -4.57, -3.83, -3.07, -1.86, -1.26, -2.8, -1.58, -0.0, 0.89, 0.0, 0.0, 3.58, 2.24, 4.47, -2.24, -2.24, -1.34, -1.26, 0.0, 1.41, 2.66, 4.56, 6.32, 8.4, 11.18, 13.41, 10.58, 3.93, 4.74, 0.0, -13.57, -12.79, -10.73, -6.13, -4.19, -1.41, -1.33, -2.84, -2.84, -1.76, 0.0, 5.03, 6.01, 4.74, 2.73, 0.0, 0.0, 5.86, 5.86, 5.86, 5.86, 5.86, 6.29, 6.53, 6.53, 6.94, 7.59, 7.59, 7.96, 8.23, 8.23, 8.87, 8.87, 9.16, 9.8, 10.44, 10.44, 10.75, 11.05, 11.05, 11.69, 11.39, 11.09, 10.43, 10.15, 9.48, 8.85, 8.16, 8.22, 7.9, 7.59, 7.59, 6.69, 5.7, 5.06, 5.63, 5.21, 4.96, 4.0, 0.0, 8.49, -8.05, -5.69, -6.01, -6.32, -6.4, -6.0, -5.4, -4.98, -3.83, -3.14, -2.84, -1.86, -1.9, -0.95, -0.95, -1.34, -1.26, 0.0, 0.0, 2.68, 2.68, 4.92, 1.79, 1.34, -0.6, 0.0, 0.7, 2.79, 4.65, 4.29, 2.98, 6.52, 10.08, 8.8, 2.73, 3.16, 0.0, -13.41, -10.75, -11.28, -8.3, -5.37, -3.79, -3.49, -3.14, -2.51, -2.0, 0.0, 2.66, 4.26, 4.46, 3.45, 1.14, 1.14, 5.86, 5.86, 5.86, 5.86, 5.86, 6.29, 6.53, 6.53, 6.94, 6.94, 7.59, 7.96, 8.23, 8.23, 8.87, 8.87, 9.16, 9.8, 10.44, 10.44, 10.75, 11.05, 11.05, 11.07, 11.07, 10.76, 10.12, 10.13, 9.48, 9.17, 8.46, 8.16, 8.22, 7.9, 8.02, 7.74, 6.69, 6.3, 6.14, 5.9, 6.64, 6.32, 3.8, 7.6, 7.15, -0.0, -3.8, -7.2, -7.21, -6.0, -5.4, -4.6, -4.22, -3.49, -2.84, -2.84, -1.58, -0.8, -1.26, -1.79, -1.79, -1.9, 0.0, 0.0, 0.0, 2.68, 2.68, 1.34, -2.24, -1.26, 0.0, 3.16, 7.03, 6.01, 4.44, 2.71, 1.69, 0.0, 1.55, 2.84, 2.84, 0.0, -14.31, -13.44, -9.39, -4.8, -4.27, -3.72, -3.48, -2.53, -1.7, -1.03, 0.0, 2.72, 2.67, 3.6, 2.66, 2.66, 5.86, 5.86, 5.86, 5.86, 5.86, 6.29, 6.29, 6.53, 6.94, 6.94, 7.6, 7.96, 8.23, 8.23, 8.87, 8.87, 9.16, 9.8, 10.13, 10.13, 10.75, 11.05, 10.75, 11.07, 10.76, 10.44, 10.12, 10.13, 9.83, 9.53, 9.17, 8.46, 8.53, 8.6, 8.31, 8.02, 7.74, 7.27, 6.58, 6.14, 5.9, 6.64, 6.32, 5.69, 7.15, -0.0, -0.0, -6.4, -5.09, -4.66, -4.4, -4.57, -4.22, -3.49, -2.84, -2.84, -2.23, -2.51, -2.23, -2.6, -2.68, -2.54, -1.26, -1.49, -1.79, -2.24, -2.68, -0.89, -1.79, -1.0, 0.0, 2.2, 7.42, 9.9, 9.3, 7.69, 1.98, -3.15, -1.41, 3.58, 3.58, 0.0, -12.3, -14.19, -12.71, -6.61, -4.02, -3.97, -4.4, -4.74, -4.22, -1.95, 0.0, 1.84, 1.75, 2.98, 3.17, 3.17, 5.64, 5.64, 5.86, 5.86, 5.86, 6.29, 6.29, 6.29, 6.94, 7.22, 7.22, 7.6, 8.24, 8.53, 8.59, 8.87, 9.5, 9.5, 10.13, 10.13, 10.13, 10.43, 10.43, 10.43, 10.44, 10.44, 10.13, 9.8, 10.18, 10.18, 9.85, 9.48, 8.85, 8.53, 8.22, 8.31, 8.02, 7.74, 7.81, 7.9, 7.68, 7.87, 6.64, 6.01, 7.6, 8.05, 8.49, -6.71, -4.02, -3.58, -3.39, -3.2, -3.22, -3.83, -3.14, -2.84, -3.16, -3.43, -4.27, -3.51, -3.13, -2.4, -1.86, -1.79, -1.26, -0.0, -0.89, -0.71, 0.85, 2.84, 1.35, 1.41, 3.48, 10.56, 12.89, 13.38, 10.43, 0.0, -5.6, -3.48, 4.02, 0.0, 0.0, -13.41, -13.09, -11.21, -8.82, -5.09, -4.85, -3.74, -4.66, -4.92, 0.0, 0.0, 0.85, 1.67, 1.75, 1.75, 5.64, 5.64, 5.89, 6.12, 6.12, 5.86, 6.29, 6.56, 6.56, 7.22, 7.22, 7.6, 7.87, 8.53, 8.87, 9.17, 9.5, 9.5, 9.82, 10.12, 10.12, 10.43, 10.43, 10.43, 10.44, 9.8, 9.8, 9.5, 8.85, 9.5, 9.83, 9.85, 9.17, 8.53, 8.6, 8.31, 8.73, 8.47, 7.74, 7.81, 7.56, 7.68, 7.51, 7.44, 8.0, 6.64, 0.0, -8.05, -6.26, -4.92, -4.0, -2.98, -2.53, -2.86, -2.68, -3.14, -3.35, -4.27, -5.02, -5.78, -3.95, -3.2, -2.24, -1.26, -1.24, -0.65, -0.0, 0.0, 0.88, 3.22, 2.0, 0.0, 0.79, 6.13, 13.55, 13.97, 10.77, 0.0, -8.94, -9.83, 7.6, 4.92, 4.92, 9.6, -12.96, -13.33, -12.08, -10.08, -5.75, -4.84, -2.84, -2.8, -2.8, 0.0, 0.0, 0.8, 0.84, 0.84, 5.89, 5.89, 5.89, 5.89, 6.12, 6.12, 6.56, 6.56, 6.56, 6.96, 7.22, 7.6, 7.6, 8.24, 8.87, 9.17, 9.5, 9.5, 9.5, 10.12, 10.12, 10.42, 10.12, 9.78, 10.12, 10.13, 9.8, 9.48, 9.17, 9.17, 8.87, 8.87, 8.9, 8.9, 8.6, 8.65, 8.31, 8.38, 8.47, 8.23, 8.37, 8.54, 8.18, 8.05, 8.4, 8.91, 9.83, 8.94, 8.05, 7.15, 6.26, -3.79, -3.16, -3.35, -2.98, -2.8, -2.91, -4.3, -4.77, -4.92, -5.2, -2.54, -2.4, -1.24, -1.2, -0.76, -0.0, 0.89, 1.98, 1.6, 0.0, -0.65, 0.0, 3.72, 11.36, 13.8, 4.83, -3.58, -0.0, 6.8, 8.94, 9.83, 8.94, 7.6, 9.83, 11.62, -12.52, -11.45, -7.76, -5.49, -3.79, -2.5, -2.68, -1.6, -0.7, 0.0, 0.0, 0.0, 5.89, 5.89, 5.89, 5.89, 5.89, 6.12, 6.56, 6.56, 6.56, 6.96, 6.96, 7.6, 7.6, 8.24, 8.87, 8.87, 9.48, 9.8, 9.8, 10.09, 10.42, 10.12, 10.12, 9.8, 9.8, 10.13, 9.8, 10.13, 10.46, 9.83, 9.23, 8.22, 8.57, 8.93, 8.93, 8.65, 8.65, 8.38, 8.79, 8.12, 8.23, 8.34, 8.54, 8.8, 8.72, 9.13, 9.54, 8.91, 8.94, 8.49, 7.6, 6.71, -0.0, -2.6, -3.48, -3.16, -3.39, -2.97, -3.53, -3.58, -3.58, -2.68, -2.0, -3.35, -1.49, -1.9, -1.74, -1.58, 0.0, -0.95, -1.86, -1.2, 0.87, 5.21, 11.39, 13.19, 8.8, 0.99, 2.53, 6.16, 9.54, 11.18, 11.62, 11.62, 11.62, 12.52, 13.41, -0.0, -7.9, -6.32, -3.79, -2.15, -1.86, -2.21, -0.63, 0.0, 0.0, 0.0, 5.89, 5.89, 5.89, 5.89, 5.89, 5.89, 6.31, 6.56, 6.56, 6.96, 6.96, 7.89, 7.89, 8.24, 8.24, 8.87, 9.48, 9.48, 9.48, 10.09, 10.09, 9.8, 10.11, 9.8, 9.8, 9.8, 9.8, 10.43, 10.43, 9.83, 9.56, 8.93, 8.93, 8.93, 8.93, 8.94, 8.65, 8.38, 8.38, 8.12, 8.55, 8.6, 8.8, 8.54, 9.04, 9.33, 9.13, 9.21, 9.11, 8.48, 8.49, 8.05, 7.6, -0.0, -0.0, -4.11, -3.48, -3.6, -3.58, 2.68, -2.24, -2.97, -3.39, -3.35, -3.2, -3.13, -2.24, -2.24, -1.34, -1.26, -1.88, -0.87, 2.0, 8.31, 11.39, 12.38, 12.42, 10.99, 10.79, 11.87, 12.0, 12.07, 11.95, 12.35, 12.52, 13.79, 14.4, 12.71, 7.59, -2.12, -2.68, -2.84, -1.9, -2.4, -0.66, -0.69, 0.0, 0.0, 5.89, 5.89, 5.89, 5.89, 5.89, 5.89, 6.31, 6.31, 6.56, 6.96, 7.24, 7.61, 7.89, 8.24, 8.24, 8.87, 9.17, 9.48, 9.48, 9.77, 10.11, 10.11, 9.8, 9.8, 9.8, 9.8, 9.8, 10.09, 10.41, 10.12, 9.9, 9.62, 8.93, 9.3, 9.3, 8.94, 8.94, 8.68, 8.38, 8.42, 8.55, 8.18, 8.21, 8.8, 9.21, 9.45, 9.89, 9.33, 8.72, 9.11, 8.48, 8.49, 8.05, 7.6, -0.0, -0.0, -0.0, -0.0, 4.47, 3.13, -0.0, -2.91, -4.34, -2.6, -3.04, -3.58, -3.58, -2.24, -1.79, -0.95, -0.85, 0.0, 1.8, 8.8, 11.96, 11.88, 11.57, 12.51, 14.55, 15.65, 13.77, 11.51, 10.58, 10.73, 10.41, 10.38, 10.38, 8.4, 4.98, 3.79, -1.7, -2.95, -2.84, -3.13, -0.7, -0.67, -0.69, -0.69, 5.89, 5.89, 6.16, 6.16, 6.16, 6.16, 6.58, 6.58, 6.58, 7.24, 7.24, 7.61, 7.61, 8.24, 8.54, 8.85, 9.46, 9.46, 9.78, 9.78, 9.78, 9.78, 9.48, 9.48, 9.8, 9.8, 9.8, 10.09, 10.13, 10.12, 10.19, 9.56, 9.27, 9.66, 9.3, 9.67, 9.3, 9.3, 8.68, 8.79, 8.42, 8.18, 8.21, 8.3, 8.37, 9.21, 9.63, 9.45, 8.8, 8.72, 8.0, 8.06, 8.05, 7.6, 7.6, 7.15, 6.26, -0.0, -0.0, -0.0, 3.58, -3.2, -3.9, -2.6, -3.04, -3.13, -2.97, -2.98, -1.9, -1.34, -0.8, -0.65, 0.85, 8.05, 12.48, 12.2, 10.38, 11.39, 14.6, 14.86, 11.64, 8.43, 7.81, 8.05, 6.7, 6.9, 6.8, 4.4, 4.4, 4.8, -0.0, -2.98, -3.16, -4.24, -1.98, -0.63, -1.36, -1.4, 5.92, 5.92, 5.92, 5.92, 6.16, 6.16, 6.58, 6.58, 6.58, 6.97, 7.24, 7.61, 7.61, 8.24, 8.54, 8.85, 8.85, 9.46, 9.46, 9.46, 9.46, 9.46, 9.8, 9.8, 9.8, 9.8, 9.8, 9.8, 9.8, 9.84, 9.84, 9.84, 9.57, 9.56, 9.3, 9.67, 9.3, 9.3, 9.43, 9.05, 8.42, 8.43, 7.44, 7.28, 8.06, 9.4, 10.21, 9.6, 8.93, 8.8, 8.3, 7.6, 7.63, 7.6, 7.6, 7.15, 6.71, 5.81, -0.0, 2.84, 2.84, 3.58, -3.13, -3.04, -2.54, -2.8, -3.2, -2.54, -2.24, -1.79, -0.95, -1.24, 0.0, 5.51, 13.11, 12.68, 8.82, 9.3, 11.94, 13.23, 9.96, 7.51, 8.05, 6.0, 4.22, 4.0, 4.52, 5.16, 5.64, 5.09, 5.09, -3.79, -4.46, -5.51, -4.66, -1.41, -1.35, -1.36, 5.92, 5.92, 5.92, 5.92, 5.92, 5.92, 6.58, 6.58, 6.58, 6.97, 6.97, 7.33, 7.61, 8.24, 8.24, 8.53, 8.85, 9.13, 9.46, 9.46, 9.76, 9.76, 9.48, 9.48, 9.48, 9.48, 9.48, 9.48, 9.5, 9.5, 9.5, 9.49, 9.82, 9.21, 9.19, 9.52, 9.52, 9.65, 9.65, 9.05, 9.05, 8.82, 8.05, 7.2, 8.0, 9.96, 10.55, 9.48, 8.37, 7.81, 7.67, 7.89, 7.81, 7.21, 7.6, 7.15, 6.71, 5.36, 4.92, 4.47, 3.16, 2.84, -0.0, -2.68, -2.8, -2.8, -2.68, -2.68, -2.24, -1.79, 1.34, -1.0, 0.0, 2.95, 10.05, 12.03, 10.23, 8.17, 10.18, 11.31, 10.04, 9.83, 7.47, 5.6, 4.52, 5.64, 6.51, 6.51, 6.07, 6.2, 5.36, 5.36, -5.81, -7.15, -6.26, -2.98, -0.88, -1.35, 5.92, 5.92, 5.92, 5.92, 5.92, 5.92, 6.33, 6.33, 6.58, 7.26, 7.26, 7.61, 7.61, 8.24, 8.24, 8.53, 8.53, 9.42, 9.42, 9.42, 9.42, 9.15, 9.48, 9.48, 9.48, 9.48, 9.48, 9.8, 9.17, 9.5, 9.16, 9.49, 9.14, 9.46, 9.09, 9.4, 9.52, 9.52, 9.65, 9.27, 9.05, 8.67, 8.06, 8.05, 8.18, 10.09, 9.77, 7.64, 6.91, 7.07, 7.6, 7.28, 7.47, 6.8, 7.37, 6.79, 6.71, 5.81, 5.36, 4.92, 4.92, 3.16, 4.47, 3.58, -3.13, -3.13, -1.79, -3.13, -2.54, -1.34, -1.34, 0.0, 0.0, 1.84, 2.68, 8.82, 11.62, 10.68, 8.72, 7.76, 5.81, 4.0, 4.09, 6.25, 7.06, 7.42, 6.98, 7.1, 7.54, 7.1, 6.61, 6.26, 4.43, 0.0, -7.2, -5.06, -1.63, -1.63, 5.92, 5.92, 5.92, 5.92, 5.92, 6.2, 6.61, 6.61, 6.61, 6.98, 6.98, 7.61, 7.61, 7.61, 8.24, 8.53, 8.82, 9.42, 9.42, 9.42, 9.42, 9.15, 9.15, 9.15, 9.48, 9.48, 9.46, 9.46, 9.17, 9.5, 8.87, 8.87, 9.14, 8.79, 9.09, 9.09, 9.4, 9.32, 9.14, 9.45, 9.27, 8.67, 8.67, 8.67, 9.43, 10.35, 8.99, 6.55, 6.32, 5.95, 6.32, 7.2, 6.9, 7.47, 6.8, 7.37, 6.36, 6.26, 5.81, 5.36, 5.36, 4.92, 4.02, 4.02, -3.13, -3.13, -3.13, -2.68, -1.79, -1.79, -0.89, 0.0, 0.0, 0.7, 1.84, 3.91, 7.82, 9.96, 7.2, 3.14, 2.68, 3.14, 7.42, 9.36, 9.85, 9.16, 7.54, 7.1, 7.15, 7.15, 7.15, 7.15, 6.79, 2.54, 0.0, 0.0, 0.0, 0.0, 5.92, 5.92, 5.92, 6.2, 6.2, 6.2, 6.61, 6.61, 6.61, 6.98, 6.98, 7.32, 7.61, 7.61, 7.93, 8.53, 8.82, 9.08, 9.42, 9.42, 9.42, 8.82, 9.15, 9.15, 9.15, 9.15, 9.46, 9.46, 9.17, 9.16, 8.87, 8.54, 8.87, 8.53, 8.79, 9.09, 8.73, 9.02, 9.02, 9.14, 8.76, 8.88, 8.67, 8.67, 9.05, 9.81, 9.2, 7.82, 7.37, 6.99, 5.95, 6.4, 6.52, 6.52, 7.06, 6.8, 6.94, 6.36, 5.94, 5.81, 5.36, 5.36, 4.92, 4.47, -3.13, -3.13, -3.13, -2.68, -1.79, -1.34, -0.45, 0.0, 0.0, 1.41, 2.18, 3.7, 5.49, 7.47, 6.64, 8.33, 7.27, 9.64, 12.74, 13.02, 11.99, 10.47, 8.29, 6.65, 6.21, 6.71, 6.71, 7.15, 7.15, 2.17, 0.0, 1.75, 1.75, 1.75, 5.92, 5.92, 5.92, 5.95, 5.95, 6.2, 6.34, 6.34, 6.61, 6.98, 6.98, 7.32, 7.32, 7.61, 7.93, 7.93, 8.82, 9.08, 9.08, 9.42, 9.71, 8.82, 8.82, 8.82, 9.15, 9.46, 9.46, 9.46, 8.84, 9.16, 8.87, 8.54, 8.54, 8.53, 8.53, 9.09, 8.73, 8.73, 8.65, 8.65, 8.76, 8.76, 8.55, 8.88, 8.88, 8.88, 8.63, 8.4, 7.82, 7.2, 6.99, 6.32, 5.95, 6.13, 6.52, 6.8, 6.4, 6.0, 5.21, 5.94, 5.51, 5.36, 5.36, 4.47, 4.02, -3.13, -3.13, -1.34, -1.79, -1.34, -0.45, 0.0, 0.66, 1.41, 2.8, 2.6, 3.63, 7.6, 10.6, 11.26, 11.13, 14.33, 16.53, 15.69, 13.59, 10.91, 9.16, 8.33, 8.0, 6.71, 8.49, 6.26, 5.95, 2.06, 1.67, 1.67, 1.67, 1.67, 5.92, 5.92, 5.95, 5.95, 5.95, 5.95, 6.34, 6.34, 6.34, 6.7, 6.98, 6.98, 7.32, 7.61, 7.93, 7.93, 8.82, 8.82, 9.08, 9.08, 9.37, 9.12, 8.82, 8.82, 8.82, 9.12, 9.12, 9.12, 8.84, 8.84, 8.82, 8.54, 8.54, 8.53, 8.53, 8.19, 8.73, 8.73, 8.37, 8.65, 8.45, 8.45, 8.76, 8.76, 8.55, 8.88, 8.3, 8.24, 7.67, 7.82, 7.2, 7.2, 6.6, 5.95, 5.95, 6.13, 5.72, 5.72, 6.0, 5.21, 4.84, 5.2, 5.36, 3.48, 0.0, -3.58, -3.13, -1.34, -1.34, -0.89, -0.6, 0.0, 0.76, 1.33, 2.53, 2.68, 3.58, 7.6, 9.54, 7.06, 8.68, 14.19, 18.37, 16.48, 13.59, 10.91, 10.22, 10.24, 9.83, 9.39, 7.15, 4.82, 5.21, 1.73, 1.49, 2.4, 2.4, 2.4, 5.69, 5.69, 5.95, 5.95, 5.95, 5.95, 6.34, 6.34, 6.34, 6.7, 6.7, 6.98, 7.32, 7.32, 8.22, 8.22, 8.22, 8.82, 8.82, 9.08, 9.37, 9.12, 9.12, 8.82, 8.82, 9.12, 9.12, 9.12, 8.84, 8.52, 8.82, 8.54, 8.54, 8.21, 8.53, 8.53, 8.5, 8.5, 8.73, 8.15, 8.45, 8.45, 8.45, 8.38, 8.38, 8.38, 8.49, 7.92, 7.85, 7.67, 7.28, 7.03, 6.82, 6.8, 5.95, 6.4, 6.13, 5.72, 5.36, 5.36, 5.21, 4.84, 4.8, 4.4, 0.0, -4.02, -3.58, -3.13, -3.13, -0.6, -0.8, -0.71, 0.0, 0.0, 2.24, 1.58, 2.97, 6.14, 5.37, 3.8, 5.69, 13.34, 18.05, 16.69, 15.27, 12.75, 10.73, 9.83, 8.94, 5.36, 4.47, 4.82, 4.8, 1.98, 0.0, 0.95, 0.95, 0.95, 5.95, 5.95, 5.95, 5.95, 5.95, 5.95, 6.34, 6.34, 6.34, 6.34, 6.7, 6.98, 7.6, 7.6, 8.22, 8.22, 8.22, 8.5, 8.82, 9.08, 9.08, 9.12, 8.82, 8.82, 8.82, 8.82, 9.12, 9.12, 8.52, 8.52, 8.52, 8.54, 8.54, 8.21, 8.21, 8.53, 8.19, 8.5, 8.5, 8.15, 8.45, 8.45, 8.09, 8.09, 8.38, 8.38, 8.27, 8.11, 7.54, 7.85, 7.46, 7.6, 7.2, 6.94, 6.4, 6.21, 6.0, 6.0, 5.75, 5.01, 4.43, 4.11, 3.79, 3.48, 3.16, 4.47, -4.02, -2.53, -3.13, -0.95, -0.6, -1.26, -1.49, -1.79, -1.79, -0.0, 2.4, 2.21, 2.99, 3.55, 5.37, 10.16, 14.79, 15.61, 16.27, 13.67, 9.83, 6.26, 5.36, 5.36, 4.92, 4.41, 4.4, 3.47, 1.63, 0.0, 0.0, 0.0, 5.95, 5.95, 5.95, 5.95, 5.95, 5.95, 6.34, 6.34, 6.34, 6.34, 6.98, 6.98, 7.6, 7.6, 7.9, 8.22, 8.22, 8.5, 8.82, 8.82, 8.82, 8.82, 8.82, 8.82, 8.82, 8.82, 9.12, 8.78, 8.52, 8.52, 8.52, 8.52, 8.54, 8.21, 8.21, 8.53, 8.19, 8.19, 8.5, 8.15, 8.15, 8.45, 8.45, 8.09, 8.38, 8.38, 8.0, 8.11, 8.11, 7.85, 7.46, 7.46, 7.2, 7.2, 6.94, 6.4, 6.4, 5.82, 5.21, 4.89, 4.43, 4.11, 3.79, 3.48, 3.16, 0.0, -3.13, -2.97, -2.97, -2.24, -1.79, 0.0, -2.12, -1.79, -1.79, 1.79, -0.0, 0.71, 1.4, 3.16, 4.98, 6.7, 9.3, 12.95, 14.95, 13.86, 4.87, 3.97, 4.43, 5.36, 5.81, 5.31, 4.66, 4.65, 2.8, 0.0, 0.0, 0.0, 5.52, 5.52, 5.95, 5.95, 5.95, 5.95, 5.95, 6.34, 6.34, 6.63, 6.98, 6.98, 7.6, 7.6, 7.6, 8.22, 8.22, 8.5, 8.5, 8.82, 8.82, 8.82, 8.82, 8.82, 8.82, 8.82, 8.82, 8.5, 8.52, 8.52, 8.52, 8.52, 7.9, 8.21, 8.21, 7.88, 8.19, 8.19, 8.19, 8.15, 8.15, 8.15, 8.23, 7.87, 8.09, 8.0, 8.0, 7.81, 8.11, 7.54, 7.54, 7.46, 7.28, 6.64, 6.64, 6.64, 6.4, 6.4, 5.82, 5.21, 4.54, 4.11, 3.22, 2.98, 2.2, 0.0, -2.53, -3.04, -2.68, -1.34, 1.79, 1.79, 1.79, -1.79, -1.79, -1.79, -1.79, -1.26, -0.0, 2.23, 3.6, 4.29, 5.24, 9.75, 14.26, 11.09, 5.51, 3.07, 3.45, 4.24, 6.07, 6.51, 4.93, 4.6, 3.49, 1.41, 1.41, 1.41, 5.52, 5.52, 5.95, 5.95, 5.95, 5.95, 5.95, 6.34, 6.34, 6.63, 6.98, 6.98, 7.6, 7.6, 7.6, 8.22, 8.22, 8.5, 8.5, 8.82, 8.5, 8.5, 8.82, 8.82, 8.82, 8.82, 8.5, 8.5, 8.22, 8.52, 8.52, 8.19, 7.9, 8.21, 8.21, 7.88, 7.88, 8.19, 8.19, 7.85, 8.15, 7.9, 7.9, 7.87, 7.87, 7.51, 7.51, 7.81, 7.59, 7.23, 7.54, 6.96, 6.96, 6.7, 6.32, 6.08, 6.44, 6.07, 5.69, 5.46, 5.05, 4.54, 3.79, 3.22, 1.7, 0.0, -1.8, -2.21, -2.23, -1.86, -1.7, 1.34, 2.24, 2.24, -1.79, -2.68, -2.24, -2.24, -1.34, 1.79, 2.97, 2.86, 4.0, 8.05, 15.59, 12.88, 7.21, 2.86, 1.8, 2.79, 4.46, 6.8, 5.43, 3.84, 3.48, 0.0, 0.0, 0.0, 5.52, 5.52, 5.52, 5.95, 5.95, 5.95, 5.95, 6.34, 6.34, 6.34, 6.7, 6.7, 7.32, 7.32, 7.6, 8.22, 8.22, 8.22, 8.5, 8.5, 8.5, 8.5, 8.24, 8.53, 8.82, 8.82, 8.5, 8.5, 8.22, 8.52, 8.19, 8.19, 7.9, 7.9, 8.21, 7.88, 7.88, 7.59, 7.58, 7.58, 7.58, 7.9, 7.56, 7.56, 7.56, 7.51, 7.51, 7.27, 7.27, 7.59, 6.98, 6.98, 6.63, 6.35, 6.35, 5.72, 6.08, 5.72, 5.72, 5.69, 5.09, 4.73, 4.54, 4.11, 2.6, 0.0, 0.0, -0.87, -1.4, -2.21, -2.4, -1.9, 0.0, 2.23, 1.58, -2.24, -2.68, -2.24, -1.34, 0.89, 1.79, 2.97, 3.95, 14.7, 16.49, 14.23, 10.18, 4.66, 0.0, 1.49, 3.48, 5.82, 5.46, 3.48, 2.0, -4.47, -4.47, -4.47, 5.52, 5.52, 5.52, 5.95, 5.95, 5.95, 5.95, 6.34, 6.34, 6.34, 6.7, 6.98, 6.98, 7.32, 7.32, 7.93, 8.22, 8.22, 8.22, 8.5, 8.5, 8.5, 8.53, 8.24, 8.53, 8.22, 8.22, 8.22, 8.22, 8.22, 8.19, 8.19, 7.9, 7.9, 7.9, 7.88, 7.88, 7.59, 7.27, 7.27, 7.58, 7.58, 7.56, 7.56, 7.56, 7.21, 7.51, 6.92, 7.27, 6.98, 6.65, 6.98, 6.01, 6.01, 5.72, 5.72, 5.72, 5.37, 5.72, 5.36, 5.36, 5.09, 4.81, 4.43, 3.22, 2.32, 0.96, 0.0, -0.76, -1.49, -2.8, -2.53, 0.0, 0.65, 0.71, 0.0, -1.7, -2.17, -0.95, 0.0, 0.0, 1.79, 8.49, 13.8, 15.65, 13.86, 10.73, 6.4, 3.58, 0.87, 2.79, 5.49, 6.32, 3.79, 4.47, -4.47, -4.47, -4.47, 5.52, 5.52, 5.52, 5.52, 5.95, 5.95, 5.95, 6.08, 6.34, 6.34, 6.7, 6.98, 6.98, 7.32, 7.32, 7.61, 7.93, 8.22, 8.22, 8.22, 8.5, 8.5, 8.22, 8.22, 8.22, 8.22, 8.22, 8.22, 8.22, 7.9, 7.9, 7.9, 7.9, 7.9, 7.59, 7.59, 7.88, 7.59, 7.27, 7.27, 7.27, 7.58, 7.25, 7.25, 7.21, 7.21, 6.95, 6.62, 6.92, 6.98, 6.65, 6.65, 6.35, 5.69, 5.69, 5.37, 5.37, 5.37, 5.37, 5.06, 5.09, 5.09, 5.09, 4.81, 4.19, 3.45, 2.12, 1.84, 0.0, 0.0, 3.13, 2.68, 0.0, 0.0, 0.0, 0.0, -1.49, -1.61, -0.61, -0.54, -0.57, 0.0, 5.73, 11.18, 12.96, 11.18, 8.49, -0.0, -1.6, 0.0, 3.49, 6.7, 6.9, 4.43, 4.92, -4.92, -4.92, -4.92, 5.29, 5.29, 5.29, 5.52, 5.95, 5.7, 5.7, 6.08, 6.34, 6.34, 6.7, 6.98, 6.98, 7.32, 7.32, 7.61, 7.93, 7.93, 8.22, 8.22, 8.22, 8.22, 8.22, 8.22, 8.22, 8.22, 8.22, 8.22, 8.22, 7.9, 7.6, 7.6, 7.9, 7.9, 7.59, 7.59, 7.59, 7.59, 7.27, 7.27, 6.95, 6.95, 6.95, 7.25, 7.25, 6.95, 6.95, 6.95, 6.62, 6.64, 6.98, 6.32, 6.35, 6.01, 5.69, 5.69, 5.3, 5.0, 5.37, 5.06, 5.06, 5.43, 5.09, 5.09, 4.74, 3.72, 3.0, 3.0, 2.8, 2.84, 2.68, 2.24, 2.24, -1.4, -1.0, 0.0, 0.0, -1.27, -1.41, -1.27, -1.16, 0.7, 3.16, 8.06, 10.58, 9.33, 7.15, -1.41, -0.76, -0.0, 3.79, 6.94, 7.01, 6.36, 5.36, -4.11, -4.11, -4.11, 5.29, 5.29, 5.29, 5.29, 5.7, 5.7, 5.7, 6.08, 6.34, 6.34, 6.7, 6.98, 6.98, 7.32, 7.32, 7.61, 7.61, 7.93, 8.22, 8.22, 8.22, 8.22, 8.22, 8.22, 8.22, 8.22, 8.22, 8.22, 8.22, 7.6, 7.6, 7.6, 7.9, 7.9, 7.59, 7.59, 7.59, 7.28, 7.59, 7.27, 6.95, 6.95, 6.65, 6.95, 6.95, 6.95, 6.64, 6.95, 6.32, 6.64, 6.32, 6.32, 6.01, 6.01, 6.01, 5.69, 5.3, 5.3, 5.0, 5.0, 5.06, 4.65, 4.65, 5.43, 5.06, 4.58, 3.97, 3.97, 3.72, 2.48, 1.2, 0.0, 0.0, -2.21, -1.9, 0.0, 1.26, 0.0, -1.23, -1.35, -0.63, 0.0, 1.41, 4.74, 8.05, 6.32, 4.74, -0.0, -0.76, -0.0, -0.0, 4.02, 5.36, 7.15, -0.0, -0.0, -0.0, -0.0, 5.29, 5.29, 5.29, 5.29, 5.7, 5.7, 5.7, 6.34, 6.34, 6.34, 6.7, 6.98, 6.98, 6.98, 7.32, 7.32, 7.61, 7.61, 7.93, 8.22, 8.22, 8.22, 8.22, 8.22, 8.22, 8.22, 8.22, 8.22, 7.91, 7.6, 7.6, 7.6, 7.6, 7.59, 7.59, 7.59, 7.28, 7.28, 7.59, 7.27, 6.95, 6.95, 6.95, 6.65, 6.95, 6.95, 6.64, 6.95, 6.32, 6.32, 6.32, 6.32, 5.94, 5.64, 5.64, 5.69, 5.3, 5.3, 5.3, 4.56, 4.29, 4.65, 4.65, 5.06, 5.06, 4.65, 4.58, 3.97, 3.97, 2.4, 0.98, 0.0, 0.0, -1.9, -2.53, -0.99, 0.0, 0.85, -0.73, -1.35, -0.7, 0.0, 0.7, 3.0, 5.59, 5.63, 4.71, 6.71, -0.0, -0.0, -0.85, -0.0, 4.02, 5.36, -0.0, -0.0, -0.0, -0.0, 5.29, 5.29, 5.29, 5.29, 5.7, 5.7, 5.7, 5.95, 6.34, 6.34, 6.34, 6.98, 6.98, 6.98, 6.98, 7.32, 7.61, 7.61, 7.61, 7.93, 7.93, 8.22, 7.93, 7.93, 7.93, 8.22, 8.22, 7.91, 7.91, 7.6, 7.6, 7.6, 7.6, 7.6, 7.59, 7.28, 7.28, 7.28, 7.28, 7.59, 6.95, 6.95, 6.95, 6.65, 6.95, 6.95, 6.64, 6.64, 6.64, 6.64, 5.98, 6.32, 5.94, 5.94, 5.64, 5.64, 4.94, 4.94, 5.3, 4.56, 4.56, 4.56, 4.29, 4.65, 5.06, 4.65, 4.16, 3.77, 4.87, 3.55, 2.47, 0.0, 0.0, -1.2, -3.13, -2.0, 0.0, 0.0, -0.87, -1.41, -1.41, -0.63, 0.0, 2.12, 4.83, 5.75, 6.71, 6.64, 8.49, -0.0, -0.0, -2.21, -3.13, -0.0, -0.0, -0.0, -0.0, -0.0, 5.29, 5.29, 5.29, 5.29, 5.7, 5.7, 5.7, 5.95, 6.34, 6.34, 6.34, 6.98, 6.98, 6.98, 6.98, 7.32, 7.61, 7.61, 7.61, 7.61, 7.93, 7.93, 7.93, 7.93, 7.93, 7.93, 7.93, 7.91, 7.91, 7.6, 7.6, 7.6, 7.6, 7.6, 7.58, 7.28, 7.28, 7.28, 7.28, 7.59, 7.25, 6.95, 6.95, 6.65, 6.95, 6.95, 6.95, 6.64, 6.64, 6.64, 5.98, 5.98, 5.94, 5.94, 5.64, 5.64, 5.21, 4.94, 4.94, 4.94, 4.56, 4.03, 4.03, 4.56, 4.56, 4.95, 4.42, 4.42, 4.68, 4.42, 2.64, 0.0, 0.0, 0.0, -1.58, -3.13, -1.8, 0.0, -1.13, -1.66, -1.41, -0.63, 0.0, 2.12, 4.6, 5.75, 6.97, 7.59, 9.54, 9.83, 8.94, 6.26, -2.53, -0.0, -2.53, -0.0, -0.0, -0.0, 5.29, 5.29, 5.29, 5.29, 5.7, 5.7, 5.7, 5.7, 6.34, 6.34, 6.34, 6.34, 6.98, 6.98, 6.98, 6.98, 7.61, 7.61, 7.61, 7.61, 7.61, 7.61, 7.93, 7.93, 7.93, 7.93, 7.61, 7.91, 7.91, 7.6, 7.6, 7.6, 7.27, 7.27, 7.58, 7.58, 7.28, 7.28, 7.28, 7.25, 7.25, 6.95, 6.95, 6.58, 6.3, 6.62, 6.62, 6.31, 6.64, 6.64, 5.98, 5.98, 5.59, 5.59, 5.64, 5.64, 5.21, 5.21, 4.94, 4.94, 4.46, 4.22, 3.69, 4.03, 4.56, 4.56, 4.56, 4.26, 4.68, 4.42, 3.33, 1.47, 0.73, 4.02, 1.79, -2.24, -2.21, -1.4, -1.13, -0.88, 0.0, 0.0, 0.0, 0.95, 3.8, 5.29, 7.59, 8.23, 9.64, 9.11, 9.39, 7.6, 5.81, 4.92, 5.36, 6.26, 6.26, 6.26, 5.29, 5.29, 5.29, 5.29, 5.7, 5.7, 5.7, 5.7, 6.34, 6.34, 6.34, 6.34, 6.98, 6.98, 6.98, 6.98, 7.61, 7.61, 7.61, 7.61, 7.61, 7.61, 7.93, 7.93, 7.93, 7.93, 7.61, 7.91, 7.91, 7.6, 7.6, 7.6, 7.27, 7.27, 7.58, 7.58, 7.28, 7.28, 7.28, 7.25, 7.25, 6.95, 6.95, 6.58, 6.3, 6.62, 6.62, 6.31, 6.64, 6.64, 5.98, 5.98, 5.59, 5.59, 5.64, 5.64, 5.21, 5.21, 4.94, 4.94, 4.46, 4.22, 3.69, 4.03, 4.56, 4.56, 4.56, 4.26, 4.68, 4.42, 3.33, 1.47, 0.73, 4.02, 1.79, -2.24, -1.4, -1.4, -1.13, -0.88, 0.0, 0.0, 0.0, 1.01, 3.6, 4.6, 6.64, 7.87, 9.13, 9.64, 9.64, 9.11, 8.49, 7.6, 7.15, 7.6, 7.6, 7.6]}, {"header": {"dx": 0.06612293990616946, "dy": 0.0552356325346848, "nx": 98, "ny": 59, "la1": 35.046912555036876, "la2": 31.78801023549047, "lo1": -121.43107172385933, "lo2": -114.95102361305473, "refTime": "2026040714", "parameterCategory": 1, "parameterNumber": 3}, "data": [-10.3, -10.13, -10.4, -10.02, -10.02, -9.74, -9.86, -9.6, -9.2, -8.24, -7.28, -5.72, -3.22, -2.54, -1.7, -2.24, -2.86, -2.0, -1.83, -0.96, -0.0, 1.03, 2.73, 2.73, 3.48, 3.14, 3.16, 2.95, 2.0, 2.98, 2.12, 2.6, -0.0, 0.0, 0.0, 0.0, 0.0, 0.0, 4.47, 3.6, 3.58, 2.0, 0.0, -2.99, -5.1, -7.01, -9.12, -10.86, -11.65, -10.27, -2.4, 5.81, 5.58, 6.08, 6.63, 7.44, 6.64, 5.46, 4.66, 3.7, 2.97, -8.48, -4.46, -0.0, 6.0, 5.06, 3.91, 3.35, 2.97, 2.71, 2.71, 1.05, 0.0, 0.0, 0.0, 1.09, 0.97, 0.0, 0.0, -0.0, 4.6, 3.2, 1.41, -0.0, -0.0, -0.0, -3.13, -2.68, -1.13, -2.2, -4.46, -6.95, -8.41, -9.08, -10.01, -10.41, -10.52, -6.26, -10.3, -10.3, -10.55, -10.02, -10.02, -9.48, -9.58, -9.32, -9.05, -8.8, -7.46, -5.37, -3.22, -1.9, -2.53, -2.4, -2.24, -1.9, -1.49, -1.94, -1.96, -0.0, 0.88, 2.53, 3.16, 3.49, 2.84, 2.15, 0.61, -0.0, 0.98, 0.87, 0.99, 2.21, 3.13, 2.53, 0.0, 0.0, 0.0, 0.0, 0.0, -1.98, -4.6, -7.48, -10.12, -12.01, -12.84, -12.84, -11.56, -3.49, 5.81, 6.36, 5.72, 5.93, 6.32, 7.07, 6.87, 6.11, 5.21, 3.99, 4.4, 0.0, -0.0, 7.15, 5.95, 5.37, 3.8, 3.52, 2.97, 2.71, 2.61, 2.08, 0.0, -1.45, -1.47, 0.0, 0.85, 0.0, 0.0, -0.0, 4.6, 3.2, 1.41, -0.0, -0.0, -0.0, -3.13, -2.68, -1.13, -2.2, -4.46, -6.95, -8.41, -9.08, -10.01, -10.41, -10.52, -6.26, -10.3, -10.3, -10.55, -10.16, -10.02, -10.02, -9.74, -9.47, -9.2, -8.66, -8.0, -7.06, -3.45, -2.5, -1.9, -1.58, -2.21, -2.8, -2.86, -2.07, -2.11, -2.99, -2.21, -0.0, 0.79, 2.79, 3.14, 2.53, 1.16, -0.0, -0.59, -0.0, 0.51, 1.49, 2.68, 2.53, 1.66, 0.0, -1.23, -2.8, -5.37, -7.27, -10.92, -13.85, -15.47, -16.19, -15.45, -13.85, -7.15, 5.94, 7.15, 6.8, 6.08, 6.32, 6.21, 6.7, 6.52, 6.11, 5.21, 3.99, 3.99, 2.33, 4.22, 6.44, 6.28, 6.01, 5.46, 5.45, 5.95, 5.35, 4.64, 3.04, 0.0, -3.39, -4.14, -2.26, -0.78, 0.0, -6.2, -0.0, -0.0, -0.0, -0.0, -1.98, -0.98, -0.76, -1.4, -3.13, -2.41, -4.03, -5.76, -7.78, -9.08, -9.17, -8.93, -8.58, -5.6, -4.34, -10.55, -10.55, -10.55, -10.55, -10.16, -10.02, -9.63, -9.35, -9.07, -8.8, -8.27, -8.0, -5.2, -3.45, -2.98, -2.53, -2.15, -2.68, -2.98, -2.21, -2.0, -1.83, -3.17, -3.06, -0.71, 0.79, 1.84, 2.86, 2.53, -0.0, -2.0, -2.11, -1.35, -0.79, 0.0, 0.0, 0.0, -1.49, -4.0, -6.77, -9.59, -13.59, -14.86, -14.88, -14.13, -13.23, -12.37, -6.79, 6.51, 7.6, 7.06, 5.72, 5.75, 5.95, 6.6, 6.91, 6.32, 6.11, 4.99, 3.82, 2.97, 2.83, 4.22, 5.84, 7.28, 7.13, 6.4, 7.27, 8.22, 8.01, 7.26, 5.3, 2.89, -2.45, -7.67, -4.84, -3.6, -2.81, -10.75, -2.63, -2.06, -2.6, -2.26, -2.16, -0.79, -0.0, -0.0, -3.6, -3.91, -5.76, -6.94, -7.72, -8.41, -8.38, -6.01, 0.0, -1.41, -3.0, -10.55, -10.55, -10.55, -10.55, -10.55, -10.16, -10.02, -9.74, -9.47, -9.07, -8.4, -7.87, -5.2, -4.57, -4.15, -3.93, -3.16, -3.16, -2.86, -3.2, -1.83, -0.95, -0.0, -1.07, -1.49, -1.01, -0.0, -0.0, -0.0, -0.0, -2.21, -3.43, -6.64, -7.44, -9.39, -9.33, -8.8, -7.9, -9.89, -12.52, -13.88, -12.22, -8.93, -5.38, -5.06, -4.92, -2.98, 3.4, 5.72, 5.72, 4.74, 5.24, 5.24, 6.8, 6.55, 6.32, 6.32, 6.11, 5.7, 4.25, 2.57, 2.64, 5.49, 6.55, 7.06, 6.48, 6.95, 6.64, 8.02, 8.53, 7.26, 7.0, 7.2, 5.34, -3.04, -7.74, -6.07, -4.56, -5.2, -5.6, -2.53, -2.41, -2.99, -1.96, -1.66, -2.53, -3.9, -5.69, -8.22, -8.49, -7.18, -6.44, -8.58, -4.11, 2.84, 0.0, -1.14, -3.32, -10.55, -10.55, -10.55, -10.55, -10.55, -10.55, -10.16, -9.88, -9.35, -9.07, -8.8, -8.12, -5.2, -4.57, -4.4, -4.6, -4.6, -4.6, -5.21, -6.26, -4.16, -4.5, -3.35, -2.09, -1.98, -3.2, -2.99, -2.84, -3.6, -4.02, -2.84, -4.02, -6.36, -10.01, -12.05, -11.15, -11.36, -11.64, -11.87, -13.51, -12.29, -9.4, -3.48, -1.75, -0.8, -1.65, -0.93, 0.0, 2.4, 3.22, 4.11, 4.89, 5.95, 5.95, 5.84, 5.15, 4.94, 4.94, 4.56, 3.39, 2.47, 3.47, 5.49, 6.11, 6.32, 6.48, 6.95, 6.32, 6.45, 5.7, 4.81, 4.97, 7.43, 7.88, 4.95, -6.2, -8.3, -3.83, -2.48, -6.64, -2.79, -3.48, -4.46, -4.87, -4.46, -6.22, -7.45, -10.16, -10.69, -9.48, -7.9, -8.15, -8.91, -0.0, -1.9, -2.15, -3.77, -4.88, -10.55, -10.55, -10.55, -10.55, -10.55, -10.55, -10.16, -10.02, -9.88, -9.6, -9.32, -8.63, -5.6, -4.4, -5.2, -4.8, -4.98, -5.58, -6.7, -6.94, -4.38, -2.73, -5.76, -7.59, -7.28, -7.37, -8.8, -8.79, -7.74, -5.51, -3.58, 0.0, -1.6, -5.81, -10.28, -12.07, -12.05, -11.76, -9.88, -9.27, -9.75, -10.23, -10.7, -10.79, -9.22, -6.1, -3.68, -1.18, 1.32, 2.66, 4.02, 4.89, 5.95, 5.49, 5.06, 3.72, 3.77, 3.77, 2.69, 2.39, 2.44, 2.8, 3.91, 4.74, 6.13, 6.87, 5.72, 4.96, 3.4, 1.94, 0.97, 1.05, 2.16, 1.19, 1.26, 0.0, -2.72, -3.8, 0.0, -4.4, -7.21, -6.79, -7.28, -7.71, -9.36, -10.71, -11.95, -13.01, -12.66, -10.99, -10.04, -11.45, -1.05, -0.0, -3.13, -3.49, -5.1, -5.46, -10.55, -10.55, -10.55, -10.55, -10.55, -10.55, -10.55, -10.16, -9.88, -10.11, -9.83, -9.33, -6.45, -5.01, -4.02, -4.43, -4.43, -4.74, -5.06, -4.36, 0.0, 1.84, -1.2, -6.45, -9.42, -9.75, -10.28, -10.38, -8.34, -6.18, -4.65, -5.64, -6.94, -8.3, -9.58, -11.15, -12.05, -10.96, -10.16, -8.0, -7.47, -9.11, -12.58, -12.72, -8.8, -4.65, -2.76, -1.25, 1.2, 2.99, 2.76, 4.89, 5.49, 5.06, 4.87, 3.77, 4.21, 2.98, 1.94, 1.75, 1.84, 1.98, 1.8, 5.2, 5.81, 6.13, 4.66, 2.46, 0.0, 0.0, 0.0, 0.0, -1.84, -3.32, -3.94, -1.13, 1.55, 5.4, 3.04, 0.0, -12.22, -12.02, -9.36, -8.94, -10.7, -11.89, -12.24, -12.88, -12.79, -11.45, -11.18, -2.76, -0.76, -2.41, -4.02, -4.46, -5.3, -6.01, -10.55, -10.55, -10.55, -10.55, -10.55, -10.55, -10.55, -10.55, -10.4, -10.4, -10.52, -10.96, -9.97, -9.85, -8.0, -6.7, -6.52, -6.11, -4.01, -2.53, 0.0, 2.16, 1.84, -0.88, -6.26, -7.89, -7.06, -8.0, -8.75, -7.64, -10.04, -12.52, -13.86, -13.67, -11.95, -9.72, -10.52, -10.52, -8.72, -4.74, 0.0, -1.98, -2.53, -1.6, -0.0, 1.6, -3.13, 0.0, 1.14, 5.37, 6.79, 5.59, 5.84, 4.87, 4.94, 4.74, 3.81, 4.18, 2.95, 1.84, 1.75, 0.0, 4.47, 4.82, 5.36, 5.72, 3.7, 2.17, 0.0, -1.14, -0.89, -1.36, -3.19, -3.6, -3.29, -1.22, 0.0, 1.14, 0.0, 1.08, -2.34, -14.3, -9.83, -8.49, -9.26, -9.83, -10.28, -11.18, -9.6, -5.46, -1.84, -0.61, -1.76, -2.86, -4.38, -4.81, -5.3, -5.69, -10.55, -10.55, -10.55, -10.55, -10.55, -10.55, -10.68, -10.68, -10.55, -10.8, -11.2, -11.72, -10.92, -12.14, -11.93, -11.71, -12.1, -12.1, -11.87, -11.3, -9.6, -9.2, -5.63, -3.6, -4.46, -6.8, -7.21, -6.95, -8.75, -11.13, -12.52, -12.91, -12.07, -11.18, -11.18, -10.28, -8.22, -6.8, 0.0, 2.24, 1.58, 0.54, 0.0, 2.24, 2.54, 1.86, 1.58, 2.21, 4.47, 6.26, 6.64, 5.37, 4.22, 3.6, 4.74, 4.78, 4.8, 4.15, 2.94, 1.84, 0.89, 0.0, 8.05, 6.14, 6.71, 5.72, 3.7, 2.97, 0.88, -0.7, -1.52, -2.82, -2.76, -2.82, -1.63, -1.84, -2.98, -2.57, -2.51, -0.92, 0.0, -5.23, -13.41, -7.5, -6.36, -5.59, -5.03, -3.8, 5.69, 1.84, -0.0, -1.41, -2.84, -3.32, -4.85, -4.12, -5.69, -5.49, -10.55, -10.55, -10.55, -10.55, -10.55, -10.55, -10.68, -11.08, -11.08, -11.08, -11.47, -12.26, -11.61, -11.2, -10.6, -12.53, -13.23, -14.75, -15.32, -16.76, -17.3, -17.37, -15.69, -11.44, -10.04, -7.6, -5.36, -3.79, -7.6, -10.58, -10.73, -4.92, -0.0, -0.0, -6.26, -9.39, -9.21, 0.0, 2.24, 1.0, 0.85, 0.0, 0.0, 0.0, -0.0, 1.58, 2.54, 3.13, 3.82, 4.38, 4.02, 2.4, 1.84, 3.2, 4.74, 5.7, 5.2, 3.18, 1.09, 0.0, 0.0, 0.0, 7.89, 7.5, 8.05, 6.63, 5.72, 4.2, 2.09, 0.0, -2.54, -3.46, -3.53, -3.02, -2.39, -2.31, -3.88, -4.71, -5.28, -5.25, -4.52, -4.95, -7.82, -10.37, -2.6, -0.88, -0.76, 0.0, 0.0, 0.0, -4.47, -2.84, -4.15, -4.47, -4.24, -4.19, -5.06, -4.22, -10.55, -10.55, -10.55, -10.55, -10.55, -10.68, -11.08, -11.08, -11.08, -11.47, -11.36, -12.14, -11.99, -11.16, -9.42, -9.48, -9.88, -11.21, -12.94, -14.53, -13.39, -11.12, -6.95, -4.6, -2.8, -0.0, -0.0, 1.24, 1.26, -0.0, -2.53, -0.0, 2.21, 1.9, 0.0, -3.58, -3.39, -0.0, 0.0, 0.0, 0.0, 0.0, 0.0, 0.0, -0.0, -0.0, -0.0, -0.0, -0.0, 0.0, -2.68, -2.21, 0.0, 0.73, 2.8, 3.35, 2.23, 1.09, 0.0, -2.02, -0.78, 2.54, 8.49, 7.45, 8.33, 6.98, 7.59, 7.14, 4.8, 0.0, -0.93, -1.76, -2.28, -2.4, -2.4, -3.11, -4.07, -5.49, -6.87, -7.73, -7.78, -5.4, -4.39, -10.43, -2.1, -1.18, -0.89, -0.64, -0.67, 0.0, -0.96, -4.09, -4.47, -4.34, -3.83, -4.74, -3.48, -3.58, -10.55, -10.55, -10.55, -10.55, -10.55, -11.08, -11.08, -11.08, -11.22, -11.36, -11.75, -11.75, -11.88, -11.81, -10.35, -8.82, -7.59, -7.85, -8.82, -10.24, -10.68, -9.83, -0.0, -0.0, -0.0, -0.0, 0.63, 1.88, 2.54, 1.93, -0.0, -0.0, -0.0, -0.0, -0.0, -0.0, -0.0, -0.0, -0.0, -0.0, -0.0, -0.0, 0.0, 0.0, -2.68, -2.24, -3.04, -3.32, -3.51, -3.58, -4.47, -4.47, -4.87, -6.79, -8.0, -7.51, -3.6, -1.69, -2.28, -1.27, 0.0, 6.36, 7.6, 7.21, 8.05, 5.58, 5.75, 7.27, 4.4, 2.82, 1.33, 1.09, 0.0, 0.0, -2.69, -3.95, -4.8, -6.42, -7.22, -7.22, -5.64, -5.3, -6.41, -8.23, -4.65, -2.06, -2.6, -2.51, -1.19, -0.61, -0.67, -1.27, -0.98, -2.48, -4.74, -3.47, -4.02, -2.53, -10.55, -10.55, -10.55, -10.55, -10.68, -11.08, -10.83, -10.83, -11.22, -11.36, -11.75, -11.5, -11.88, -11.72, -11.23, -9.48, -8.24, -7.58, -7.55, -8.24, -8.12, -7.24, -6.7, -8.22, -2.19, -0.0, -0.0, 1.52, 1.84, 1.23, -0.0, -0.0, -0.0, -0.0, -0.71, -0.0, -0.0, -0.0, -0.0, 0.98, 0.87, -0.0, -0.0, 0.0, 0.0, -2.24, -3.13, -4.92, -8.05, -9.39, -9.39, -10.73, -13.19, -13.79, -12.42, -11.57, -9.26, -6.44, -5.52, 0.0, 1.27, -0.0, 0.0, -6.26, -4.92, -4.02, 0.0, 0.0, 0.0, 1.32, 4.6, 4.8, 2.95, 0.0, -2.83, -4.3, -4.8, -4.42, -3.9, -3.22, -3.48, -6.44, -7.82, -8.49, -8.85, -7.79, -5.27, -4.05, -1.84, 0.0, 0.0, -0.7, -1.27, -2.4, -3.49, -2.0, -1.8, -2.53, -10.55, -10.55, -10.55, -10.55, -11.08, -10.83, -10.83, -11.22, -11.22, -11.75, -11.5, -11.88, -11.62, -11.72, -11.58, -10.69, -9.8, -8.85, -8.15, -8.49, -7.73, -6.67, -6.0, -6.88, -11.16, -11.6, -0.0, -0.0, 1.6, 1.19, 0.54, -0.0, -0.0, -0.8, -0.8, -1.0, -0.0, -0.0, 1.13, 1.8, 1.8, -0.0, 0.0, 0.0, 3.13, 3.13, 0.0, -2.12, -3.04, -4.02, -8.05, -9.33, -7.5, -3.13, -2.24, -3.58, -5.7, -7.81, -6.28, 0.0, -0.0, -0.0, -2.24, -3.58, -4.38, -4.38, -5.81, -7.15, -0.0, 4.47, 5.06, 3.25, 0.0, -1.18, -3.82, -2.58, 0.0, 0.0, -1.41, -1.7, -3.47, -4.74, -5.36, -5.52, -5.98, -10.01, -8.73, -4.15, -1.4, 0.0, -0.83, -1.26, -2.11, -1.66, -0.98, -4.02, -2.98, -2.98, -10.68, -10.55, -10.55, -10.68, -10.83, -10.83, -10.83, -11.22, -11.22, -11.5, -11.5, -11.62, -11.62, -11.72, -11.58, -11.03, -10.74, -9.78, -9.46, -8.78, -8.38, -7.6, -6.79, -6.4, -6.4, -5.46, -5.6, 0.0, 0.0, 3.4, 1.14, 0.59, -0.0, -0.0, -0.0, -0.0, -0.0, 2.21, 2.84, 2.98, 1.98, 1.58, 0.0, 3.13, 2.53, 3.6, 4.02, 0.0, 0.0, -0.63, -2.54, -2.97, 0.0, 1.79, 1.6, 1.34, -3.2, -4.46, -2.8, 0.0, -1.34, 0.0, 0.0, -1.34, -3.58, -6.64, -6.7, -0.7, 1.6, 3.58, 0.0, -1.62, -3.44, -4.08, -1.33, 1.27, 4.24, 4.11, 2.4, 4.11, 0.0, -2.4, -3.4, -2.09, -2.09, -1.3, -8.23, -4.4, 0.0, -1.49, -2.06, -2.4, -2.07, -1.55, -1.83, -3.39, -3.58, -3.58, -10.68, -10.68, -10.68, -11.08, -10.83, -10.83, -10.83, -11.22, -11.22, -11.5, -11.5, -11.62, -11.62, -11.72, -11.23, -11.03, -11.03, -10.43, -9.78, -8.74, -8.05, -7.29, -6.48, -5.55, -3.69, -3.09, -2.24, -2.56, -1.66, 0.0, 0.0, 0.0, -0.0, -0.0, 0.63, 1.79, 2.8, 2.53, 2.53, 2.84, -0.0, -0.0, 1.6, 1.2, 2.53, 2.53, 2.53, -0.0, 3.13, 3.13, 2.68, 2.68, 2.21, 0.0, 0.0, 0.0, 0.0, 0.0, 0.0, 0.0, 0.0, 0.0, 2.68, 2.24, 0.0, -2.6, -3.35, -0.88, -0.65, -3.13, -4.71, -6.98, -5.8, -3.68, 0.0, 1.6, 2.6, 3.0, 2.8, 3.47, 6.71, 0.0, -1.58, -2.54, -2.33, -1.05, 0.0, 0.0, -2.2, -2.83, -3.32, -2.4, -2.79, -2.98, -3.47, -3.22, -3.58, -3.58, -10.68, -10.68, -11.08, -11.08, -10.83, -10.83, -10.83, -11.22, -10.96, -11.34, -11.5, -11.62, -11.35, -11.72, -11.23, -10.69, -10.75, -10.75, -9.46, -8.74, -7.29, -7.03, -6.48, -3.78, -1.62, -0.84, -2.65, -2.88, -3.18, -3.76, -4.55, -4.15, -6.32, 0.0, 3.82, 1.86, 1.4, 0.87, -0.0, -0.0, -0.0, -0.0, -0.0, -0.0, -0.0, -0.0, -0.0, -0.0, -0.0, 2.21, 2.53, 2.84, 0.0, 0.0, 0.0, 0.0, 0.0, 0.0, 0.0, 0.0, 4.92, 4.47, 4.02, 3.58, 4.47, 1.79, 0.0, -4.02, -9.64, -11.02, -12.07, -11.03, -9.6, -5.36, -0.0, 1.33, 0.7, -0.0, -0.0, -0.0, 0.0, -1.98, -2.66, -5.46, -5.03, -2.68, -3.07, 0.0, -2.99, -4.68, -4.2, -2.8, -2.73, -4.07, -4.01, -3.22, -3.47, -3.47, -10.68, -10.68, -11.08, -11.08, -10.83, -10.83, -10.83, -11.22, -10.96, -11.34, -11.34, -11.62, -11.35, -11.16, -11.16, -10.24, -10.73, -10.74, -8.83, -7.34, -6.95, -7.29, -7.48, -5.4, -3.34, -3.2, -4.38, -5.99, -6.4, -6.42, -7.19, -7.02, -6.44, 0.0, 6.36, 3.49, 2.23, -0.0, -0.7, -0.76, -1.2, -0.65, -0.0, -0.0, -0.0, -0.0, -0.0, -0.0, 2.53, 2.53, 2.84, 3.16, 4.47, 4.47, 0.0, 0.0, 0.0, 0.0, 0.0, 0.0, 0.0, 4.02, 4.02, 2.12, 4.24, 2.8, 0.0, -2.84, -8.0, -10.73, -8.05, -5.69, 0.0, 0.0, 0.0, 0.0, -0.0, -0.79, -3.49, -5.51, -4.65, -4.75, -5.86, -6.14, -6.14, -6.32, -6.06, -4.74, -6.77, -7.21, -5.37, -2.88, -3.55, -4.43, -4.46, -3.93, -3.6, -3.6, -10.68, -10.68, -11.08, -11.08, -10.83, -10.83, -10.83, -11.22, -10.96, -10.96, -11.07, -11.07, -11.16, -11.16, -11.23, -10.65, -10.39, -10.3, -8.65, -7.18, -7.89, -8.77, -9.88, -8.78, -9.87, -10.47, -9.61, -10.75, -10.17, -9.48, -8.22, -6.98, -8.03, -8.0, 5.69, 4.02, 1.84, -0.0, -0.64, -1.07, -1.08, -0.0, -0.0, -0.0, -0.0, -0.0, -0.0, -0.0, 1.6, 2.53, 2.53, 2.84, 3.16, 3.48, 2.68, 0.0, 0.0, 0.0, 0.0, 0.0, 0.0, 3.13, 1.9, 3.6, 2.8, 1.9, 0.0, -1.2, -0.73, 1.14, 3.15, 3.6, 4.38, 2.19, -1.26, -4.2, -6.44, -8.06, -6.13, -6.26, -6.0, -5.69, -4.0, 0.0, 0.0, -3.97, -2.53, 0.0, -2.76, -2.0, -4.29, -6.01, -5.89, -6.07, -5.6, -5.69, -4.15, -4.15, -10.68, -10.68, -10.68, -11.08, -10.83, -10.83, -10.83, -10.96, -10.96, -10.96, -11.07, -11.07, -11.16, -11.16, -11.58, -11.58, -10.39, -10.3, -10.51, -11.09, -11.38, -10.99, -11.36, -11.38, -12.37, -12.39, -11.53, -12.45, -11.37, -8.72, -7.15, -6.45, -7.07, -7.6, -7.6, -0.0, 0.96, -0.0, -0.0, -0.0, -0.0, -0.0, -0.0, -0.0, -0.0, -0.0, -0.0, -0.0, 1.4, 1.4, 2.53, 2.84, 3.16, -0.0, 0.0, 0.0, 0.0, 0.0, 0.0, 0.0, 2.24, 2.21, 2.53, -0.0, -0.0, -0.0, -0.0, 0.0, 2.84, 6.91, 9.17, 9.8, 7.57, 3.05, -2.21, -9.21, -12.39, -12.96, -7.27, -6.52, -6.71, -7.15, 8.05, 6.94, 5.58, 2.23, 1.4, 3.58, 0.0, 0.0, -2.88, -6.95, -6.95, -5.58, -5.02, -5.44, -4.85, -4.85, -10.68, -10.68, -10.68, -11.08, -10.83, -10.68, -10.68, -10.96, -10.96, -10.96, -11.07, -11.07, -11.16, -11.16, -11.23, -11.58, -10.65, -10.35, -11.64, -12.65, -12.35, -11.39, -10.74, -11.36, -12.02, -11.7, -10.75, -9.76, -8.4, -6.64, -6.0, -5.21, -6.0, -6.23, -7.15, -3.0, -0.0, -0.0, -0.0, -0.0, -0.0, -0.0, -0.0, -0.0, -0.0, -0.0, -0.0, -0.0, -0.0, -0.0, -0.0, -0.0, -0.0, -0.0, 0.0, 0.0, 0.0, -0.0, 0.0, 0.0, 1.58, 2.23, 1.58, 0.8, -0.0, -0.0, -0.0, -0.0, 3.13, 3.58, 5.26, 7.68, 6.64, 2.65, -7.28, -12.74, -14.56, -14.39, -9.48, -3.25, -2.99, -2.12, 3.0, 4.43, 4.74, 1.55, -0.0, -3.58, -3.15, -2.0, -5.7, -6.92, -5.37, -3.48, -4.47, -4.47, -4.47, -4.47, -10.68, -10.68, -10.55, -10.94, -10.68, -10.68, -10.68, -10.41, -10.79, -10.96, -11.07, -11.07, -11.16, -11.16, -11.23, -11.23, -10.65, -10.65, -11.36, -11.7, -11.66, -10.35, -9.48, -9.77, -10.74, -10.7, -9.89, -8.97, -7.59, -7.51, -7.2, -6.51, -5.4, -4.98, -5.26, -5.81, -1.7, -0.0, -0.0, -0.0, -0.0, -0.0, -0.0, 1.03, 0.88, 0.96, 1.55, 1.6, -0.0, -0.0, -0.0, -0.0, -0.0, -0.0, 0.0, 0.0, 3.16, 2.2, 0.0, 0.0, 2.68, 2.0, 1.6, 1.58, -0.0, -0.0, -0.0, 0.0, 0.0, -0.0, -0.6, -1.6, -1.96, -2.69, -3.13, -9.79, -13.47, -14.94, -15.65, -0.0, -1.45, -1.32, -1.52, -1.7, -1.84, -2.2, -4.34, -4.41, -7.07, -8.22, -7.8, -5.69, -2.84, 0.0, -2.84, -4.47, -4.92, -4.92, -10.55, -10.55, -10.55, -10.55, -10.68, -10.68, -10.68, -10.41, -10.79, -10.79, -10.51, -11.07, -11.16, -11.16, -11.23, -10.65, -10.65, -11.33, -11.69, -11.38, -11.03, -9.69, -9.38, -8.83, -9.48, -9.76, -10.04, -9.36, -8.61, -7.73, -8.58, -8.48, -7.37, -6.58, -6.17, -6.26, -5.51, -1.7, -0.0, -0.0, -0.0, -0.0, 1.32, 2.32, 1.84, 1.55, 1.7, 2.0, 1.6, -0.0, -0.0, -0.0, -0.0, -0.0, -0.0, 4.47, 1.58, -0.0, 0.0, 0.0, 0.0, 0.0, 0.0, 0.0, 3.16, -0.0, 0.0, 0.0, 0.0, -1.34, -3.13, -8.4, -9.58, -4.11, -0.0, -3.58, -8.82, -12.04, -13.57, 0.0, 2.45, -0.0, -1.67, -4.83, -6.08, -6.64, -7.15, -8.9, -8.4, -5.82, -5.09, -4.8, 0.0, 0.0, -4.02, -4.92, -5.81, -5.81, -10.55, -10.55, -10.55, -10.55, -10.94, -10.68, -10.68, -10.41, -10.79, -10.79, -10.51, -10.87, -11.16, -11.16, -10.65, -10.65, -10.99, -11.03, -11.05, -11.38, -10.73, -10.37, -9.42, -9.38, -9.66, -9.73, -9.8, -9.4, -9.32, -8.91, -8.85, -8.94, -8.8, -8.77, -8.38, -7.94, -7.6, -6.79, -3.0, -0.0, -0.0, -0.0, 1.73, 2.49, 3.22, 2.6, 1.84, 1.99, 2.2, 2.2, 1.08, -0.0, -0.0, -0.0, -0.0, 2.53, 3.58, 1.26, -0.89, -1.9, 0.0, -1.58, -2.68, -0.0, 3.16, -0.0, 0.0, 0.0, -0.0, -2.6, -5.16, -6.8, -9.6, -10.28, 9.83, 0.0, -2.6, -3.45, -7.44, -8.53, -0.0, 2.45, -0.0, -6.17, -6.9, -7.21, -8.05, -8.0, -4.73, -4.02, -0.0, 7.2, 0.0, -1.55, -3.6, -5.36, -5.81, -5.81, -10.55, -10.55, -10.55, -10.55, -10.55, -10.68, -10.68, -10.41, -10.41, -10.51, -10.51, -10.87, -10.59, -10.94, -10.65, -10.65, -10.99, -11.03, -11.37, -11.06, -11.06, -10.43, -10.08, -10.02, -9.87, -10.04, -9.8, -8.79, -9.48, -8.72, -8.32, -8.53, -8.73, -8.82, -9.13, -8.82, -8.33, -8.49, -8.05, -5.37, -0.0, -0.0, -0.0, 3.4, 2.66, 3.45, 2.49, 2.32, 2.8, 2.6, 1.99, 0.96, 2.0, 1.6, 1.6, 2.53, 2.21, 2.68, 0.0, -1.79, -2.8, -2.53, 0.0, 0.0, 0.0, -0.0, -0.0, -0.0, -0.0, -2.24, -4.24, -5.95, -6.18, -7.26, -3.14, 0.0, 0.0, -4.02, -3.16, -4.96, -12.96, 3.47, -0.0, -3.98, -4.43, -4.22, -6.26, -4.02, -3.13, -3.22, -3.22, 0.0, -3.8, -3.45, -3.22, -4.47, -4.92, -4.92, -10.55, -10.55, -10.55, -10.55, -10.55, -10.68, -10.68, -10.68, -10.41, -10.51, -10.51, -10.59, -10.59, -10.94, -10.65, -10.65, -10.99, -11.03, -11.05, -11.06, -11.06, -10.43, -10.43, -10.39, -10.35, -9.95, -9.73, -9.48, -9.17, -8.85, -8.53, -8.22, -7.42, -7.9, -7.59, -8.55, -8.43, -9.13, -8.4, -8.48, -8.0, -8.49, 0.0, 2.54, 3.4, 3.4, 3.4, 3.2, 3.0, 2.8, 2.16, 1.83, 2.3, 1.84, 1.24, 1.26, 1.4, 1.58, 1.34, 0.0, -2.24, -3.58, 0.0, 0.0, 0.0, -0.0, -0.0, -0.0, -1.26, -2.68, -4.24, -4.66, -6.08, -6.32, -4.2, 0.0, 0.0, -1.76, -2.95, -4.74, -10.73, 4.52, 6.4, -0.0, -3.68, -5.24, -4.24, -3.32, -2.84, -2.84, -4.11, -4.47, -6.28, -6.01, -4.74, -4.09, -4.92, -4.92, -10.55, -10.55, -10.55, -10.55, -10.55, -10.3, -10.68, -10.68, -10.41, -10.51, -10.51, -10.23, -10.59, -10.59, -10.65, -10.65, -10.99, -11.03, -11.05, -11.05, -10.75, -10.44, -10.44, -10.39, -10.72, -10.4, -10.43, -9.43, -9.48, -8.85, -8.9, -8.22, -7.9, -7.59, -7.59, -7.81, -8.55, -8.43, -7.51, -7.81, -7.44, -8.0, -8.49, 0.0, -0.0, 5.69, 6.01, 4.22, 3.2, 3.0, 2.16, 1.99, 2.3, 2.51, 2.84, 1.24, 1.9, 0.95, 0.95, -0.0, -1.26, -3.13, -4.02, 0.0, 0.0, 0.0, 0.0, 0.0, -1.2, -2.68, -3.51, -3.49, -5.43, -5.72, -4.46, -3.91, -2.02, -4.4, -4.09, -3.16, -8.05, -0.0, 10.75, 2.82, -3.32, -5.37, -3.79, -2.79, -2.51, -3.14, -4.0, -5.36, -4.66, -6.82, -6.7, -5.75, -5.7, -5.7, -10.55, -10.55, -10.55, -10.55, -10.55, -10.3, -10.68, -10.68, -10.41, -10.41, -10.51, -10.23, -10.59, -10.59, -10.65, -10.65, -10.99, -11.03, -11.05, -11.05, -10.75, -10.44, -10.44, -10.42, -10.42, -10.09, -10.12, -9.46, -9.48, -9.17, -9.23, -8.9, -8.22, -7.9, -7.13, -6.77, -7.81, -7.56, -7.68, -7.87, -6.64, -6.32, -7.6, 0.0, 0.0, 7.6, 7.6, 3.6, 2.4, 3.0, 2.16, 2.76, 2.53, 2.79, 2.84, 2.84, 1.58, 1.6, 1.26, -0.0, -0.0, -1.9, -3.13, -1.79, -2.68, 0.0, 0.0, 0.0, -0.0, -1.26, -2.68, -3.16, -3.91, -6.01, -9.77, -10.84, -10.14, -7.15, -4.66, -2.84, -2.84, -12.07, 3.58, 3.36, -0.0, -2.4, -2.44, -2.48, -3.48, -4.22, -5.09, -6.17, -6.71, -6.13, -7.12, -7.2, -6.64, -6.64, -10.55, -10.55, -10.55, -10.55, -10.55, -10.3, -10.3, -10.68, -10.41, -10.41, -9.94, -10.23, -10.59, -10.59, -10.65, -10.65, -10.99, -11.03, -10.72, -10.72, -10.75, -10.44, -10.75, -10.42, -10.09, -9.78, -10.12, -9.46, -9.13, -8.79, -9.17, -9.23, -8.53, -7.82, -7.48, -7.13, -6.77, -7.27, -7.9, -7.68, -7.87, -6.64, -6.32, -5.69, 0.0, 7.6, 8.49, 3.2, 1.7, 1.55, 2.2, 1.83, 2.53, 2.79, 2.84, 2.84, 3.35, 3.14, 1.49, 0.65, -0.0, -0.85, -1.26, -0.99, -0.0, -0.0, -0.0, -0.0, -0.0, -2.0, -3.58, -4.4, -4.12, -4.13, -8.37, -11.53, -11.91, -7.89, -4.24, 0.0, 0.0, -9.83, -4.1, 1.77, 2.54, 1.1, -0.0, -0.66, -2.2, -4.74, -6.32, -7.81, -8.49, -7.37, -7.85, -7.95, -7.4, -7.4, -10.16, -10.16, -10.55, -10.55, -10.55, -10.3, -10.3, -10.3, -10.41, -10.23, -10.23, -9.94, -10.01, -10.35, -10.3, -10.65, -10.69, -10.69, -10.72, -10.72, -10.72, -10.43, -10.43, -10.43, -9.78, -9.78, -9.46, -9.15, -8.73, -8.73, -9.1, -9.48, -8.85, -8.53, -8.22, -7.48, -7.13, -6.77, -6.69, -6.58, -6.14, -5.9, -6.64, -6.01, 0.0, 0.0, 0.0, -0.0, -0.0, -0.0, 1.13, 1.6, 2.41, 2.3, 2.51, 2.84, 3.16, 2.86, 2.44, 0.7, -0.0, -1.2, -1.24, -0.0, 1.26, 1.79, -0.0, -2.12, -2.54, -2.84, -4.73, -5.64, -3.48, -1.92, -3.68, -7.21, -10.43, -10.73, -2.8, -3.48, 0.0, -5.36, -11.18, -0.0, 2.91, 3.06, 3.21, 1.7, 0.81, 1.49, 1.55, -0.0, -6.26, -7.6, -8.45, -8.33, -7.85, -7.85, -10.16, -10.16, -10.02, -10.4, -10.4, -10.55, -10.3, -10.13, -10.13, -10.23, -10.23, -9.94, -10.3, -10.35, -10.06, -10.39, -10.69, -10.69, -10.4, -10.12, -10.12, -10.43, -10.43, -10.43, -9.78, -9.8, -9.15, -8.82, -8.85, -8.15, -9.13, -9.1, -9.17, -8.53, -7.82, -7.48, -6.98, -6.59, -6.77, -6.69, -6.3, -6.14, -5.63, -4.96, -4.0, -6.64, -9.39, -0.0, -0.0, -0.0, 2.0, 1.98, 2.53, 2.15, 1.61, 2.51, 2.23, 2.44, 1.88, 0.58, -0.79, -1.6, -0.0, 1.26, 1.86, 2.6, 1.34, -2.68, -4.38, -5.37, -4.0, -4.47, -3.95, -3.68, -2.9, -5.99, -9.42, -11.62, -0.0, -0.0, 0.0, 0.0, 0.0, -4.8, -0.0, 1.48, 3.29, 3.67, 2.47, 3.22, 2.84, 1.4, -1.4, -4.02, -8.05, -8.01, -7.55, -7.55, -10.02, -10.02, -10.02, -10.02, -10.4, -10.4, -10.13, -10.13, -10.13, -9.86, -10.23, -9.94, -9.94, -10.01, -10.06, -10.39, -10.09, -10.09, -10.09, -10.12, -10.12, -9.8, -10.12, -10.44, -10.12, -9.46, -9.15, -9.48, -9.17, -9.17, -8.19, -8.19, -8.16, -8.16, -7.82, -7.08, -7.48, -6.7, -6.59, -6.17, -5.98, -4.88, -5.46, -4.83, -4.2, -2.97, 0.0, 0.0, 0.0, 0.0, 0.0, 3.79, 3.16, 2.23, 1.98, 1.4, 1.16, 1.23, 1.19, -0.0, -1.3, -0.85, 1.2, 1.86, 2.4, 3.04, 2.68, 0.0, -2.98, -3.2, -2.24, -2.6, -3.58, -4.46, -5.25, -6.37, -8.05, -0.0, 4.47, 3.4, 0.0, 0.0, 0.0, 0.0, 0.0, 0.0, -0.0, 3.82, 4.44, 4.58, 3.79, 1.88, -0.0, -3.2, -4.87, -6.71, -6.71, -6.71, -10.02, -10.02, -10.02, -10.02, -10.02, -10.4, -10.13, -10.13, -10.13, -9.86, -9.86, -9.94, -9.94, -10.01, -10.06, -10.06, -9.48, -9.8, -9.8, -9.5, -9.8, -10.12, -10.12, -9.8, -9.8, -9.46, -9.15, -9.46, -9.76, -9.13, -8.46, -8.22, -7.85, -7.44, -7.44, -7.08, -7.08, -6.7, -6.15, -6.31, -6.17, -5.21, -4.88, -4.4, -3.49, -3.65, -2.39, -2.97, 0.0, 0.0, 0.0, 0.0, 6.26, 5.2, 3.48, 3.16, 1.13, 0.99, 0.59, -0.0, -0.0, -0.0, 1.0, 2.23, 2.23, 1.9, 2.6, 1.58, -0.89, -0.95, -1.24, -2.4, -3.47, -7.81, -7.89, -6.6, -4.4, 2.97, 2.53, 2.64, 2.39, 0.0, 0.0, 0.0, 0.0, 0.0, 0.0, 13.41, 7.9, 6.32, 3.79, 2.86, 1.24, -2.21, -4.43, -6.71, -7.15, -7.15, -10.02, -10.02, -10.02, -10.02, -10.02, -10.02, -9.76, -10.13, -10.13, -9.86, -9.86, -9.71, -9.71, -9.42, -9.42, -9.46, -9.48, -9.48, -9.48, -9.5, -9.5, -9.8, -9.48, -9.8, -9.8, -9.15, -9.15, -9.13, -9.13, -9.13, -8.76, -8.12, -8.12, -7.44, -7.44, -6.71, -7.08, -6.7, -6.7, -6.31, -5.7, -4.78, -4.4, -4.88, -3.87, -3.11, -3.65, -1.84, -2.28, -2.83, 0.0, 0.0, 0.0, 7.15, 6.26, 4.11, 3.48, 1.8, -0.0, 0.0, -0.0, 0.99, 1.13, 2.23, 1.6, -0.0, -0.0, -0.0, -0.0, -1.26, -2.5, -3.47, -4.0, -7.48, -7.89, -5.16, 1.55, 6.87, 7.19, 3.96, 1.33, 0.0, -1.71, -2.06, 0.0, 1.38, 3.2, 2.54, 7.59, 6.36, 3.58, 2.84, 1.9, -1.2, -3.97, -6.22, -7.15, -7.15, -10.02, -10.02, -10.02, -10.02, -10.02, -10.02, -9.76, -9.76, -10.13, -9.86, -9.66, -9.37, -9.71, -9.42, -9.42, -9.46, -9.17, -9.48, -9.48, -9.19, -9.48, -9.48, -9.8, -9.8, -9.15, -9.15, -9.15, -8.83, -8.46, -8.1, -8.37, -8.01, -8.12, -6.97, -6.97, -6.71, -6.71, -6.31, -6.7, -5.9, -5.7, -5.46, -4.56, -4.4, -3.45, -4.05, -2.82, -3.11, -3.49, -2.28, -2.83, 0.0, 0.0, 0.0, 7.15, 6.71, 5.81, 5.36, 0.0, 0.0, 3.13, 1.16, 1.08, 0.65, 0.76, -0.0, -0.0, -0.0, -0.0, -0.95, -2.54, -3.58, -3.6, -4.4, -3.68, -2.16, 1.16, 3.41, 2.43, 0.0, -1.53, -1.64, -1.76, 0.0, 2.6, 4.15, 4.15, 4.2, 1.99, 3.79, 5.09, 3.93, 2.84, -0.0, -3.51, -5.32, -7.57, -7.57, -10.02, -10.02, -9.86, -9.86, -9.86, -9.86, -9.58, -9.58, -9.58, -9.66, -9.66, -9.37, -9.37, -9.42, -9.15, -8.85, -8.87, -8.87, -9.17, -9.17, -9.17, -9.17, -9.48, -9.48, -9.15, -9.15, -9.15, -8.83, -8.78, -8.1, -8.01, -8.09, -7.73, -7.24, -6.97, -6.45, -6.2, -6.2, -6.31, -6.15, -5.9, -5.46, -4.56, -3.32, -3.14, -3.45, -3.61, -4.05, -4.4, -3.49, -4.0, -2.69, 0.0, 0.0, 0.0, 0.0, 0.0, 5.81, 4.02, 3.58, 0.0, 1.6, 0.98, 0.65, 0.76, -0.0, 0.99, 1.98, 1.9, -0.0, -1.6, -2.6, -2.54, 0.0, -0.89, -2.81, -4.15, -5.18, -5.62, -6.19, -6.65, -5.06, -1.95, 0.0, 4.46, 4.14, 3.4, 2.2, 2.2, 2.4, 5.81, 4.46, 3.16, 1.41, -2.98, -4.43, -6.11, -7.01, -9.48, -9.48, -9.48, -9.48, -9.86, -9.86, -9.58, -9.58, -9.58, -9.3, -9.66, -9.37, -9.37, -8.82, -9.15, -8.85, -8.85, -8.87, -8.87, -8.87, -8.87, -8.87, -9.15, -9.15, -9.15, -9.15, -9.15, -9.15, -8.49, -8.44, -7.73, -7.73, -7.36, -6.62, -6.97, -6.45, -6.2, -6.2, -6.0, -5.76, -5.9, -5.06, -4.96, -4.37, -2.69, -4.18, -4.54, -4.8, -5.1, -4.4, -3.32, -3.8, -2.54, 0.0, 0.0, 0.0, 0.0, 0.0, 4.47, 2.84, 2.84, 0.0, -0.0, 0.76, 0.85, 1.4, 1.6, 0.85, -0.0, -0.0, -0.95, -1.86, -2.24, -1.84, -2.81, -2.72, -5.29, -8.37, -10.11, -9.92, -8.3, -5.63, 0.0, 3.0, 2.53, 2.0, 1.94, 1.47, 1.41, 1.7, 1.7, 3.79, 2.98, 1.84, -1.55, -4.24, -4.73, -6.11, -9.48, -9.48, -9.48, -9.48, -9.48, -9.48, -9.58, -9.58, -9.58, -9.3, -9.3, -9.02, -9.37, -8.82, -8.82, -8.53, -8.85, -8.56, -8.87, -8.87, -8.54, -8.54, -8.85, -8.85, -8.85, -8.85, -8.85, -8.85, -8.82, -8.15, -8.15, -7.46, -7.02, -7.09, -6.36, -5.86, -5.86, -5.63, -5.63, -5.76, -5.76, -5.29, -4.83, -4.5, -4.0, -3.98, -5.86, -5.92, -5.98, -5.21, -4.6, -3.15, -1.95, -2.4, 0.0, 0.0, 0.0, 0.0, 0.0, 0.0, 3.16, 2.84, 3.13, -0.0, 1.4, 1.4, -0.0, -0.0, -0.0, -0.0, 0.0, -2.0, -4.02, -3.93, -3.77, -1.0, -1.02, -3.63, -6.48, -7.2, -6.7, 0.0, 2.99, 2.8, 1.94, 1.41, 1.63, 1.63, 1.52, 0.89, 0.0, 0.0, -0.0, -0.0, -0.0, -4.46, -5.29, -4.73, -9.48, -9.48, -9.48, -9.48, -9.48, -9.48, -9.21, -9.21, -9.58, -9.08, -9.08, -8.78, -8.78, -8.82, -8.82, -8.53, -8.53, -8.24, -8.24, -8.24, -8.24, -8.54, -8.85, -8.85, -8.85, -8.85, -8.85, -8.49, -8.52, -8.15, -7.85, -7.46, -7.18, -6.76, -6.5, -6.04, -5.86, -5.86, -5.63, -5.41, -5.76, -5.52, -5.64, -4.83, -5.46, -5.77, -5.43, -5.46, -4.94, -4.71, -3.8, -4.37, -2.99, -3.4, -1.84, -2.26, 0.0, 0.0, 0.0, 0.0, 0.0, 3.16, 0.0, 0.0, -0.0, -0.0, -0.0, -0.0, -0.85, -0.0, -0.0, -2.68, -4.47, -5.51, -3.58, -1.47, 0.0, -0.97, -3.49, -4.44, -2.32, 2.0, 2.73, 3.47, 2.82, 1.65, 1.55, 0.89, 0.94, 0.89, 1.1, 0.0, -4.43, -8.05, -3.6, -5.06, -6.51, -6.51, -9.48, -9.48, -9.48, -9.48, -9.48, -9.3, -9.01, -9.01, -9.01, -8.73, -8.73, -8.78, -8.78, -8.78, -8.82, -8.53, -8.24, -8.24, -8.24, -8.24, -8.24, -8.54, -8.54, -8.54, -8.85, -8.85, -8.2, -8.2, -8.52, -8.15, -8.19, -8.19, -7.18, -6.9, -6.5, -6.5, -6.04, -5.32, -5.62, -5.09, -5.41, -5.52, -5.52, -5.52, -6.0, -6.21, -4.99, -4.68, -4.22, -3.97, -4.22, -3.6, -4.14, -2.99, -3.4, -1.84, -2.12, 0.0, 0.0, 0.0, 0.0, 0.0, 0.0, 0.0, -0.0, -0.0, -0.0, -0.0, -0.0, -0.0, -0.0, -2.68, -4.47, -4.87, -5.51, -4.89, -4.34, -3.98, -3.6, -2.51, 0.0, 2.51, 4.12, 4.25, 2.95, 2.04, 0.94, 0.89, 0.0, 0.0, 0.0, 0.0, -2.26, -7.63, -8.49, -8.49, -8.49, -8.49, -9.48, -9.48, -9.48, -9.3, -9.3, -9.3, -9.01, -9.01, -9.01, -8.73, -8.73, -8.45, -8.78, -8.78, -8.5, -8.53, -8.24, -7.95, -8.24, -8.24, -8.24, -8.24, -8.54, -8.54, -8.54, -8.54, -8.2, -8.2, -8.52, -7.85, -8.19, -7.88, -7.51, -7.22, -6.9, -6.5, -6.24, -5.8, -5.8, -5.62, -5.39, -5.18, -5.52, -5.52, -5.76, -5.35, -4.6, -4.34, -4.21, -3.99, -3.97, -3.2, -3.91, -3.91, -2.82, -3.4, -1.73, -2.12, -1.98, 0.0, 0.0, 0.0, 0.0, 0.0, -0.0, -0.0, -0.0, -0.0, -0.0, -0.0, -0.0, -2.24, -4.47, -5.64, -7.28, -8.14, -7.06, -6.4, -6.64, -1.67, 7.27, 8.67, 7.43, 4.74, 3.6, 2.33, 1.84, 0.83, 0.78, 0.0, 0.0, 0.0, 0.0, -8.67, -8.94, -8.77, -8.77, -8.77, -9.48, -9.48, -9.48, -8.93, -8.93, -9.3, -8.65, -8.65, -9.01, -8.73, -8.73, -8.45, -8.45, -8.78, -8.5, -8.5, -8.24, -7.95, -7.95, -8.24, -7.89, -8.24, -8.24, -8.24, -8.54, -8.2, -8.2, -8.2, -8.21, -7.85, -8.19, -7.88, -7.88, -7.22, -7.22, -6.5, -6.24, -6.24, -5.56, -5.56, -5.39, -5.39, -5.7, -5.18, -5.18, -5.18, -4.71, -4.2, -4.34, -4.5, -3.99, -4.22, -3.97, -3.68, -3.91, -3.4, -3.2, -3.0, -3.47, -1.98, -1.84, 0.0, 0.0, 0.0, 0.0, -0.0, -0.0, -0.0, -0.0, -0.0, -0.0, -2.24, -3.97, -5.64, -5.6, -5.2, -4.54, -3.8, -3.53, 6.43, 12.24, 12.13, 8.9, 5.23, 2.72, 2.42, 2.04, 1.67, 0.89, 0.0, 0.0, 0.0, -3.97, -8.24, -8.33, -8.33, -8.33, -8.33, -9.48, -9.48, -8.93, -8.93, -8.93, -8.93, -8.65, -8.65, -8.65, -8.38, -8.73, -8.73, -8.45, -8.78, -8.5, -8.5, -8.24, -8.24, -7.95, -7.95, -7.61, -7.9, -8.24, -8.24, -8.24, -7.9, -7.9, -7.9, -8.21, -8.21, -7.56, -7.88, -7.88, -7.22, -7.22, -6.93, -6.24, -6.24, -5.98, -5.56, -5.85, -5.85, -5.39, -5.39, -5.7, -5.18, -5.28, -4.5, -4.6, -4.34, -4.5, -3.6, -3.77, -3.97, -3.97, -3.68, -4.29, -4.29, -3.0, -3.47, -3.22, -2.6, 0.0, -3.48, -4.02, -0.0, -0.0, -0.0, -0.0, -0.0, -1.2, -2.24, -3.04, -3.32, -2.53, 0.0, 0.0, 0.0, 2.39, 8.07, 11.93, 11.61, 5.65, 4.12, 2.72, 2.42, 1.14, 0.93, 0.0, 0.0, 0.0, -0.96, -3.47, -6.94, -7.45, -7.21, -7.21, -7.21, -9.1, -9.1, -8.93, -8.93, -8.93, -8.93, -8.65, -8.65, -8.65, -8.38, -8.38, -8.73, -8.45, -8.45, -8.22, -8.22, -8.22, -8.24, -8.24, -7.95, -7.61, -7.9, -7.9, -8.24, -8.24, -7.9, -7.9, -7.9, -8.21, -7.91, -7.56, -7.88, -7.88, -7.58, -7.22, -7.22, -6.54, -6.54, -6.24, -6.27, -5.85, -5.85, -5.85, -5.15, -5.15, -5.15, -4.96, -5.04, -4.28, -4.6, -4.37, -3.91, -4.26, -3.4, -3.97, -3.2, -3.68, -4.29, -4.02, -4.02, -3.47, -3.22, -2.4, -2.2, -4.47, -0.0, -0.0, -0.0, -0.0, -1.2, -1.6, -2.12, -2.24, -2.24, 0.0, 1.58, 0.99, 1.23, 5.37, 7.6, 9.1, 7.28, 5.16, 6.42, 5.09, 2.32, 0.0, 0.0, 0.0, 0.0, 0.0, -0.96, -2.4, -5.94, -6.71, -6.64, -6.64, -6.64, -8.93, -8.93, -8.93, -8.93, -8.93, -8.93, -8.65, -8.65, -8.65, -8.65, -8.38, -8.15, -8.19, -8.19, -8.22, -8.22, -8.22, -7.93, -8.24, -7.95, -7.95, -7.9, -8.24, -8.24, -8.24, -8.24, -7.9, -7.9, -7.91, -7.91, -7.91, -7.88, -7.88, -7.58, -7.58, -7.22, -6.93, -6.54, -6.54, -6.27, -5.85, -5.85, -5.6, -5.6, -5.15, -5.15, -4.45, -4.73, -4.8, -4.28, -4.07, -3.8, -3.6, -3.09, -3.2, -3.55, -3.0, -3.0, -3.45, -3.76, -4.43, -4.11, -3.79, -3.48, -3.16, 0.0, -0.0, 2.53, -0.0, -0.95, -1.2, -1.26, -0.99, -0.0, -0.0, 1.79, 1.2, 2.21, 4.98, 6.21, 5.37, 5.64, 7.4, 9.61, 6.26, 2.28, 0.0, 0.0, 0.0, 0.0, 0.0, -0.73, -2.2, -5.21, -6.51, -7.15, -7.15, -7.15, -8.93, -8.93, -8.93, -8.93, -8.93, -8.93, -8.65, -8.65, -8.65, -8.65, -8.15, -8.15, -8.19, -8.19, -7.9, -8.22, -8.22, -7.93, -8.24, -8.24, -8.24, -8.24, -8.24, -8.24, -8.24, -8.24, -7.9, -7.61, -7.91, -7.91, -7.91, -7.91, -7.88, -7.58, -7.58, -7.22, -6.93, -6.93, -6.54, -6.27, -6.27, -5.85, -5.85, -5.6, -5.15, -5.15, -4.92, -4.73, -4.73, -4.28, -4.07, -4.07, -3.6, -3.6, -3.09, -3.2, -3.2, -3.33, -3.47, -3.91, -4.43, -4.11, -3.79, -3.48, -3.16, -4.02, -0.0, 0.99, 0.99, -0.0, -0.0, -1.79, -0.71, -0.0, -0.0, 0.0, 2.24, 2.12, 2.8, 3.16, 2.99, 4.46, 6.97, 7.06, 4.6, 0.0, -0.7, -0.66, -0.63, 0.0, 0.0, -0.76, -1.55, -3.49, -5.6, -6.71, -6.71, -6.71, -9.2, -9.2, -8.93, -8.93, -8.93, -8.93, -8.93, -8.65, -8.65, -8.44, -8.15, -8.15, -8.19, -8.19, -8.19, -8.22, -8.22, -7.93, -7.93, -8.24, -8.24, -8.24, -8.24, -8.24, -8.24, -8.24, -8.24, -7.93, -7.91, -7.91, -7.91, -7.91, -7.9, -7.58, -7.58, -7.28, -6.93, -6.93, -6.93, -6.27, -6.27, -6.27, -6.17, -5.9, -5.6, -4.92, -4.92, -5.21, -4.73, -4.8, -4.8, -4.07, -4.37, -3.69, -3.69, -3.69, -3.2, -3.2, -3.33, -3.47, -3.63, -4.11, -4.29, -4.46, -4.4, -4.47, -2.53, -0.76, -0.0, -0.0, 0.0, 0.0, 0.0, -0.0, -0.0, -0.0, -0.0, 1.26, 1.79, 1.49, 1.8, 3.22, 4.19, 3.25, 1.1, -1.39, -1.84, -1.84, -2.07, -1.41, -1.52, -1.63, -2.11, -2.76, -4.65, -5.64, -5.64, -5.64, -9.2, -9.2, -8.93, -8.93, -8.93, -8.93, -8.93, -8.65, -8.65, -8.44, -8.15, -8.15, -8.19, -8.19, -8.19, -8.22, -8.22, -7.93, -7.93, -8.24, -7.93, -7.93, -8.24, -8.24, -8.24, -8.24, -7.93, -7.93, -8.22, -7.91, -7.91, -7.6, -7.9, -7.58, -7.58, -7.28, -7.28, -6.93, -6.93, -6.64, -6.27, -6.58, -6.58, -5.9, -5.9, -5.63, -5.63, -5.21, -5.52, -5.26, -4.8, -4.87, -4.87, -4.46, -4.22, -4.56, -4.03, -3.79, -3.55, -3.9, -2.88, -3.63, -3.79, -4.29, -5.09, -4.92, -3.6, -2.21, -1.49, -1.24, -0.57, 0.0, 0.0, 0.0, -0.0, -0.0, -0.0, -0.0, -0.0, 0.0, 0.99, 2.15, 2.0, 0.0, -1.3, -1.43, -2.4, -2.15, -3.6, -3.49, -2.98, -3.4, -3.11, -3.07, -3.48, -5.36, -5.36, -5.36, -9.2, -9.2, -9.2, -8.93, -8.93, -8.93, -8.93, -8.65, -8.65, -8.65, -8.38, -8.38, -8.45, -8.45, -8.19, -8.22, -8.22, -8.22, -7.93, -7.93, -7.93, -7.93, -8.82, -8.53, -8.24, -8.24, -7.93, -7.93, -8.22, -7.91, -7.6, -7.6, -7.9, -7.9, -7.58, -7.28, -7.28, -7.59, -6.95, -6.95, -6.95, -6.58, -6.3, -6.3, -6.3, -5.63, -5.63, -5.94, -5.94, -5.52, -5.59, -5.59, -5.31, -4.94, -4.94, -5.0, -4.56, -4.29, -4.29, -3.55, -3.64, -3.38, -3.63, -4.11, -5.2, -5.81, -4.47, -3.47, -2.8, -2.21, -1.2, -1.9, -2.68, -1.49, -1.58, -0.0, -0.0, -0.0, -0.0, 0.0, 0.0, 0.99, 0.79, -1.23, -1.27, -1.42, -1.45, -1.55, -3.58, -3.74, -3.48, -4.16, -3.9, -3.48, -4.0, -0.0, -0.0, -0.0, -9.2, -9.2, -9.2, -8.93, -8.93, -8.93, -8.93, -8.65, -8.65, -8.65, -8.38, -8.73, -8.73, -8.45, -8.45, -8.5, -8.22, -8.22, -8.22, -7.93, -7.93, -7.93, -8.53, -8.82, -8.53, -8.22, -8.22, -8.22, -8.22, -8.22, -7.6, -7.6, -7.9, -7.9, -7.9, -7.28, -7.28, -7.59, -7.27, -7.27, -6.95, -6.95, -6.3, -6.3, -6.3, -6.01, -5.63, -5.66, -5.94, -6.28, -5.98, -5.59, -5.35, -5.35, -5.0, -5.0, -5.0, -5.37, -4.29, -4.02, -4.02, -3.64, -4.01, -4.43, -5.37, -5.81, -5.73, -5.36, -3.04, -2.23, -1.4, -2.53, -3.58, -2.6, -2.12, -1.79, -0.57, -0.54, -0.95, -0.89, -0.89, 0.0, 0.0, -1.25, 0.0, 0.0, 0.0, 3.2, 0.0, -3.47, -3.49, -4.58, -4.22, -3.79, 0.0, -0.0, -0.0, -0.0, -9.2, -9.2, -9.2, -9.2, -8.93, -8.93, -8.93, -8.29, -8.65, -8.65, -8.38, -8.73, -8.73, -8.45, -8.45, -8.78, -8.5, -8.22, -8.22, -8.22, -7.93, -7.93, -8.22, -8.22, -8.22, -8.22, -8.22, -8.22, -8.22, -7.9, -7.9, -7.9, -7.9, -7.9, -7.59, -7.59, -7.28, -7.59, -7.27, -7.27, -7.27, -6.95, -6.65, -6.65, -6.01, -6.01, -6.31, -6.01, -5.66, -6.28, -5.98, -5.98, -5.64, -5.69, -5.69, -5.37, -5.37, -5.37, -5.37, -5.06, -4.36, -4.36, -3.64, -4.01, -5.24, -5.75, -6.36, -5.51, -3.13, -2.68, 0.0, 0.0, -3.13, -3.13, -2.24, -2.24, -2.23, -2.68, -3.07, -2.17, -1.7, -1.79, -0.96, 0.0, 0.0, 0.0, 0.0, 5.36, 3.2, -4.02, -4.65, -4.46, -4.14, -4.43, 0.0, -0.0, -0.0, -0.0, -8.82, -8.82, -8.82, -9.2, -8.93, -8.55, -8.55, -8.29, -8.65, -8.65, -8.38, -8.73, -8.73, -8.45, -8.45, -8.78, -8.5, -8.5, -8.22, -8.22, -8.22, -8.22, -8.22, -8.22, -8.22, -8.22, -8.22, -8.22, -8.22, -7.9, -8.19, -8.19, -7.9, -7.9, -7.59, -7.59, -7.59, -7.59, -7.27, -7.27, -7.58, -7.58, -6.95, -6.65, -6.65, -6.31, -6.31, -6.31, -6.01, -6.64, -6.28, -6.32, -5.64, -6.01, -5.69, -5.69, -6.06, -5.72, -5.37, -5.06, -5.06, -4.65, -4.36, -4.36, -4.74, -5.58, -6.0, -6.0, -5.6, -2.84, 0.0, 0.0, 0.0, -2.8, -2.0, -1.79, -2.24, -3.82, -4.24, -3.82, -2.91, -3.51, -3.16, -2.69, -1.76, -3.11, 0.0, 4.24, 3.04, 4.02, -3.79, -1.73, -1.4, -2.12, 0.0, 4.11, 4.11, 4.11, -8.82, -8.82, -8.82, -8.82, -8.55, -8.55, -8.55, -8.29, -8.65, -8.65, -8.38, -8.73, -8.73, -8.45, -8.45, -8.78, -8.78, -8.5, -8.22, -8.22, -8.22, -8.22, -8.22, -8.22, -8.22, -8.22, -8.22, -8.22, -8.22, -8.19, -8.19, -8.19, -7.9, -7.9, -7.59, -7.59, -7.59, -7.88, -7.59, -7.27, -7.58, -7.58, -7.25, -6.95, -6.95, -6.95, -6.64, -6.31, -6.32, -6.64, -6.32, -6.32, -6.01, -6.01, -6.01, -5.69, -6.06, -6.06, -5.72, -5.72, -5.06, -5.43, -5.43, -4.65, -5.06, -5.49, -5.95, -5.95, -5.58, -3.72, -2.4, -2.24, -1.79, -2.21, -1.9, -1.79, -1.26, -3.58, -4.3, -4.73, -4.43, -4.47, -4.24, -4.74, -4.83, -6.32, -4.74, 4.92, 3.04, 3.13, 4.02, 0.0, 0.0, 0.0, 6.26, 4.02, 4.02, 4.02, -8.82, -8.82, -8.82, -8.82, -8.55, -8.55, -8.55, -8.65, -8.65, -8.65, -8.38, -8.73, -8.73, -8.73, -8.45, -8.45, -8.78, -8.78, -8.5, -8.22, -8.22, -8.22, -8.22, -8.22, -8.22, -8.22, -8.22, -8.22, -8.52, -8.19, -8.19, -8.19, -8.19, -7.59, -7.59, -7.59, -7.88, -7.88, -7.59, -7.27, -7.58, -7.58, -7.58, -7.25, -6.95, -6.95, -6.64, -6.31, -6.32, -6.32, -6.32, -6.32, -6.68, -6.35, -6.35, -5.69, -6.06, -6.06, -6.06, -6.08, -5.72, -5.43, -5.43, -5.06, -5.06, -5.43, -5.49, -5.95, -5.95, -4.8, -3.9, -2.68, -2.24, -1.9, -2.53, -2.97, -2.68, -2.54, -4.41, -4.73, -4.87, -4.47, -4.87, -6.0, -6.98, -7.51, -7.07, 0.0, 5.81, 3.58, 2.54, 3.13, 0.0, 0.0, 4.02, 3.13, 3.13, 3.13, -8.82, -8.82, -8.82, -8.82, -8.55, -8.55, -8.55, -8.93, -8.65, -8.65, -8.65, -8.73, -8.73, -8.73, -8.73, -8.45, -8.78, -8.78, -8.78, -8.5, -8.5, -8.22, -8.5, -8.5, -8.5, -8.22, -8.22, -8.52, -8.52, -8.19, -8.19, -8.19, -8.19, -8.19, -7.59, -7.88, -7.88, -7.88, -7.88, -7.59, -7.58, -7.58, -7.58, -7.25, -6.95, -6.95, -6.64, -6.64, -6.64, -6.64, -6.65, -6.32, -6.68, -6.68, -6.35, -6.35, -6.35, -6.35, -6.06, -6.08, -6.08, -6.08, -5.72, -5.43, -5.06, -5.43, -5.82, -6.6, -5.84, -6.21, -5.75, -3.13, -3.13, -2.4, -0.0, -4.0, -3.58, -2.68, -3.47, -4.24, -4.24, -4.43, -4.92, -6.36, -8.05, -9.58, -8.94, -6.64, 0.0, 8.05, 4.92, 2.21, -0.0, 3.13, 3.13, 3.58, 3.58, 3.58, -8.82, -8.82, -8.82, -8.82, -8.55, -8.55, -8.55, -8.93, -8.65, -8.65, -8.65, -8.73, -8.73, -8.73, -8.73, -8.45, -8.78, -8.78, -8.78, -8.78, -8.5, -8.5, -8.5, -8.5, -8.5, -8.5, -8.5, -8.52, -8.52, -8.19, -8.19, -8.19, -8.19, -8.19, -8.21, -7.88, -7.88, -7.88, -7.88, -7.59, -7.91, -7.58, -7.58, -7.25, -6.95, -6.95, -6.95, -6.64, -6.64, -6.64, -6.65, -6.65, -6.68, -6.68, -6.35, -6.35, -6.7, -6.35, -6.35, -6.35, -6.08, -6.44, -6.44, -6.08, -6.08, -5.77, -6.18, -6.18, -6.55, -6.18, -6.16, -3.13, -3.13, -4.02, 1.58, -0.0, -3.6, -2.68, -3.39, -4.15, -4.24, -4.43, -5.36, -6.36, -7.67, -9.58, -9.3, -7.59, -2.39, 0.0, 0.0, 0.0, 2.53, 3.13, 2.53, 4.92, 4.92, 4.92, -8.82, -8.82, -8.82, -8.82, -8.55, -8.55, -8.55, -8.55, -8.65, -8.65, -8.65, -8.65, -8.73, -8.73, -8.73, -8.73, -8.78, -8.78, -8.78, -8.78, -8.78, -8.78, -8.5, -8.5, -8.5, -8.5, -8.78, -8.52, -8.52, -8.19, -8.19, -8.19, -8.49, -8.49, -8.21, -8.21, -7.88, -7.88, -7.88, -7.91, -7.91, -7.58, -7.58, -7.9, -7.56, -7.28, -7.28, -6.95, -6.64, -6.64, -6.65, -6.65, -6.98, -6.98, -6.35, -6.35, -6.7, -6.7, -6.35, -6.35, -6.7, -6.32, -6.64, -6.44, -6.08, -6.08, -6.08, -6.82, -6.55, -6.18, -5.82, -5.16, -4.41, 0.0, 0.0, -0.0, -2.21, -2.8, -3.39, -4.38, -4.92, -4.92, -5.81, -6.64, -7.6, -8.82, -7.59, -6.17, -1.93, -2.28, 0.0, 0.0, 0.0, 0.0, 0.0, 0.0, 0.0, 0.0, -8.82, -8.82, -8.82, -8.82, -8.55, -8.55, -8.55, -8.55, -8.65, -8.65, -8.65, -8.65, -8.73, -8.73, -8.73, -8.73, -8.78, -8.78, -8.78, -8.78, -8.78, -8.78, -8.5, -8.5, -8.5, -8.5, -8.78, -8.52, -8.52, -8.19, -8.19, -8.19, -8.49, -8.49, -8.21, -8.21, -7.88, -7.88, -7.88, -7.91, -7.91, -7.58, -7.58, -7.9, -7.56, -7.28, -7.28, -6.95, -6.64, -6.64, -6.65, -6.65, -6.98, -6.98, -6.35, -6.35, -6.7, -6.7, -6.35, -6.35, -6.7, -6.32, -6.64, -6.44, -6.08, -6.08, -6.08, -6.82, -6.55, -6.18, -5.82, -5.16, -4.41, 0.0, 0.0, -0.0, -2.8, -2.8, -3.39, -4.38, -4.92, -5.36, -5.81, -7.08, -7.2, -7.67, -6.64, -5.9, -3.65, -1.93, -1.93, -2.28, 0.0, 0.0, 0.0, 0.0, 0.0, 0.0]}]